DW6957 Weather Reports


Display with metric or nautical units.
time (UTC)temp
F
wind
direction
speed
MPH
gust
MPH
rain 1hr
in
rain 24hr
in
rain mn
in
humidity
%
barometer
mb
20260510154552 54 26 12.0 16.0 0.00 0.00 0.00 79 1025.0
20260510154427 54 34 12.0 16.0 0.00 0.00 0.00 79 1025.0
20260510154324 54 360 11.0 16.0 0.00 0.00 0.00 80 1024.9
20260510154225 54 360 11.0 16.0 0.00 0.00 0.00 80 1024.9
20260510154123 54 37 12.0 16.0 0.00 0.00 0.00 79 1024.9
20260510154020 54 14 12.0 16.0 0.00 0.00 0.00 80 1024.9
20260510153921 54 13 11.0 16.0 0.00 0.00 0.00 80 1024.8
20260510153819 54 17 11.0 16.0 0.00 0.00 0.00 80 1024.8
20260510153718 54 30 13.0 16.0 0.00 0.00 0.00 80 1024.8
20260510153616 54 34 13.0 16.0 0.00 0.00 0.00 80 1024.8
20260510153534 54 39 12.0 16.0 0.00 0.00 0.00 80 1024.7
20260510153432 54 26 11.0 16.0 0.00 0.00 0.00 81 1024.7
20260510153330 54 16 11.0 16.0 0.00 0.00 0.00 80 1024.7
20260510153246 53 40 12.0 16.0 0.00 0.00 0.00 80 1024.7
20260510153123 54 5 12.0 16.0 0.00 0.00 0.00 80 1024.8
20260510153017 54 17 12.0 15.0 0.00 0.00 0.00 81 1024.7
20260510152916 53 46 11.0 15.0 0.00 0.00 0.00 81 1024.6
20260510152835 53 13 11.0 15.0 0.00 0.00 0.00 81 1024.6
20260510152735 53 38 11.0 15.0 0.00 0.00 0.00 81 1024.6
20260510152632 53 22 10.0 15.0 0.00 0.00 0.00 81 1024.7
20260510152526 53 38 11.0 15.0 0.00 0.00 0.00 81 1024.7
20260510152426 53 21 12.0 15.0 0.00 0.00 0.00 81 1024.6
20260510152327 53 26 12.0 15.0 0.00 0.00 0.00 81 1024.6
20260510152226 53 39 12.0 15.0 0.00 0.00 0.00 81 1024.6
20260510152124 53 360 10.0 15.0 0.00 0.00 0.00 81 1024.6
20260510152022 53 28 10.0 15.0 0.00 0.00 0.00 81 1024.6
20260510151939 53 28 9.0 15.0 0.00 0.00 0.00 81 1024.6
20260510151857 53 13 10.0 15.0 0.00 0.00 0.00 81 1024.6
20260510151733 53 24 11.0 15.0 0.00 0.00 0.00 81 1024.6
20260510151632 53 38 11.0 15.0 0.00 0.00 0.00 81 1024.5
20260510151529 53 37 11.0 19.0 0.00 0.00 0.00 81 1024.6
20260510151426 53 34 12.0 19.0 0.00 0.00 0.00 81 1024.6
20260510151327 53 40 11.0 19.0 0.00 0.00 0.00 81 1024.5
20260510151229 53 19 11.0 19.0 0.00 0.00 0.00 81 1024.5
20260510151129 53 28 10.0 19.0 0.00 0.00 0.00 81 1024.4
20260510151026 53 17 11.0 19.0 0.00 0.00 0.00 81 1024.4
20260510150943 53 360 10.0 19.0 0.00 0.00 0.00 81 1024.4
20260510150822 53 360 11.0 19.0 0.00 0.00 0.00 81 1024.4
20260510150738 53 360 12.0 19.0 0.00 0.00 0.00 81 1024.4
20260510150655 53 24 14.0 19.0 0.00 0.00 0.00 81 1024.4
20260510150548 53 360 12.0 19.0 0.00 0.00 0.00 81 1024.3
20260510150426 53 355 11.0 19.0 0.00 0.00 0.00 81 1024.3
20260510150333 53 10 11.0 19.0 0.00 0.00 0.00 81 1024.4
20260510150228 53 15 13.0 19.0 0.00 0.00 0.00 81 1024.4
20260510150125 53 41 13.0 19.0 0.00 0.00 0.00 81 1024.4
20260510150019 53 19 13.0 19.0 0.00 0.00 0.00 81 1024.4
20260510145919 53 360 13.0 19.0 0.00 0.00 0.00 81 1024.4
20260510145817 53 22 14.0 19.0 0.00 0.00 0.00 81 1024.4
20260510145733 53 26 14.0 19.0 0.00 0.00 0.00 81 1024.4
20260510145617 53 17 14.0 18.0 0.00 0.00 0.00 81 1024.4
20260510145531 53 360 13.0 17.0 0.00 0.00 0.00 81 1024.4
20260510145428 53 351 13.0 17.0 0.00 0.00 0.00 81 1024.4
20260510145326 53 360 12.0 17.0 0.00 0.00 0.00 81 1024.4
20260510145222 53 17 13.0 17.0 0.00 0.00 0.00 81 1024.4
20260510145120 53 16 13.0 17.0 0.00 0.00 0.00 81 1024.4
20260510145017 53 360 12.0 17.0 0.00 0.00 0.00 82 1024.3
20260510144921 53 360 12.0 17.0 0.00 0.00 0.00 82 1024.3
20260510144819 53 360 11.0 17.0 0.00 0.00 0.00 81 1024.3
20260510144736 53 360 12.0 17.0 0.00 0.00 0.00 81 1024.3
20260510144632 53 360 12.0 17.0 0.00 0.00 0.00 81 1024.3
20260510144546 53 360 13.0 17.0 0.00 0.00 0.00 81 1024.4
20260510144422 53 360 14.0 17.0 0.00 0.00 0.00 81 1024.3
20260510144323 53 360 14.0 17.0 0.00 0.00 0.00 81 1024.3
20260510144223 53 360 13.0 17.0 0.00 0.00 0.00 81 1024.3
20260510144123 53 360 13.0 17.0 0.00 0.00 0.00 81 1024.3
20260510144040 53 360 13.0 17.0 0.00 0.00 0.00 81 1024.3
20260510143936 53 360 14.0 17.0 0.00 0.00 0.00 81 1024.3
20260510143834 53 33 12.0 17.0 0.00 0.00 0.00 81 1024.3
20260510143731 53 5 11.0 17.0 0.00 0.00 0.00 81 1024.3
20260510143631 53 15 10.0 17.0 0.00 0.00 0.00 81 1024.3
20260510143528 53 17 10.0 17.0 0.00 0.00 0.00 82 1024.3
20260510143445 53 22 10.0 17.0 0.00 0.00 0.00 81 1024.2
20260510143322 53 20 12.0 17.0 0.00 0.00 0.00 81 1024.1
20260510143222 53 17 13.0 17.0 0.00 0.00 0.00 80 1024.1
20260510143118 53 19 13.0 17.0 0.00 0.00 0.00 80 1024.2
20260510143033 53 5 13.0 16.0 0.00 0.00 0.00 80 1024.2
20260510142953 53 5 12.0 16.0 0.00 0.00 0.00 80 1024.1
20260510142831 53 19 12.0 15.0 0.00 0.00 0.00 81 1024.3
20260510142749 53 24 10.0 18.0 0.00 0.00 0.00 81 1024.2
20260510142629 53 14 11.0 18.0 0.00 0.00 0.00 81 1024.1
20260510142527 53 27 12.0 18.0 0.00 0.00 0.00 81 1024.1
20260510142427 53 28 12.0 18.0 0.00 0.00 0.00 81 1024.1
20260510142325 53 5 12.0 18.0 0.00 0.00 0.00 81 1024.1
20260510142224 53 26 12.0 18.0 0.00 0.00 0.00 81 1024.1
20260510142122 53 44 11.0 18.0 0.00 0.00 0.00 81 1024.0
20260510142036 53 26 12.0 18.0 0.00 0.00 0.00 81 1024.0
20260510141934 53 25 13.0 18.0 0.00 0.00 0.00 81 1024.0
20260510141835 53 15 14.0 18.0 0.00 0.00 0.00 81 1024.0
20260510141716 53 355 14.0 18.0 0.00 0.00 0.00 80 1024.0
20260510141634 53 5 14.0 18.0 0.00 0.00 0.00 80 1024.0
20260510141551 53 5 12.0 18.0 0.00 0.00 0.00 80 1023.9
20260510141447 53 5 12.0 18.0 0.00 0.00 0.00 81 1023.9
20260510141324 53 24 12.0 18.0 0.00 0.00 0.00 80 1023.8
20260510141241 53 360 13.0 18.0 0.00 0.00 0.00 80 1023.8
20260510141137 53 360 14.0 18.0 0.00 0.00 0.00 80 1023.8
20260510141033 53 28 13.0 18.0 0.00 0.00 0.00 80 1023.8
20260510140931 53 14 14.0 18.0 0.00 0.00 0.00 80 1023.8
20260510140850 53 360 13.0 18.0 0.00 0.00 0.00 79 1023.8
20260510140730 53 17 13.0 18.0 0.00 0.00 0.00 79 1023.8
20260510140631 54 360 12.0 17.0 0.00 0.00 0.00 79 1023.8
20260510140525 54 360 13.0 17.0 0.00 0.00 0.00 79 1023.8
20260510140422 54 43 13.0 17.0 0.00 0.00 0.00 79 1023.8
20260510140343 54 360 13.0 17.0 0.00 0.00 0.00 79 1023.8
20260510140259 54 360 12.0 17.0 0.00 0.00 0.00 79 1023.7
20260510140134 54 18 13.0 17.0 0.00 0.00 0.00 79 1023.7
20260510140026 54 44 14.0 17.0 0.00 0.00 0.00 79 1023.7
20260510135923 54 360 13.0 18.0 0.00 0.00 0.00 79 1023.6
20260510135825 54 44 12.0 18.0 0.00 0.00 0.00 79 1023.6
20260510135744 54 360 13.0 18.0 0.00 0.00 0.00 79 1023.6
20260510135640 54 23 12.0 18.0 0.00 0.00 0.00 79 1023.6
20260510135532 54 360 12.0 18.0 0.00 0.00 0.00 78 1023.5
20260510135428 54 360 13.0 18.0 0.00 0.00 0.00 78 1023.6
20260510135328 54 27 13.0 18.0 0.00 0.00 0.00 78 1023.5
20260510135227 54 42 12.0 18.0 0.00 0.00 0.00 78 1023.5
20260510135128 54 360 13.0 18.0 0.00 0.00 0.00 78 1023.5
20260510135022 54 360 14.0 18.0 0.00 0.00 0.00 78 1023.5
20260510134947 54 27 15.0 18.0 0.00 0.00 0.00 77 1023.4
20260510134829 55 360 14.0 17.0 0.00 0.00 0.00 77 1023.4
20260510134746 55 360 13.0 17.0 0.00 0.00 0.00 77 1023.4
20260510134624 55 360 12.0 17.0 0.00 0.00 0.00 78 1023.4
20260510134519 55 360 12.0 18.0 0.00 0.00 0.00 78 1023.4
20260510134416 55 360 12.0 18.0 0.00 0.00 0.00 79 1023.4
20260510134335 55 360 12.0 18.0 0.00 0.00 0.00 79 1023.5
20260510134231 55 360 14.0 18.0 0.00 0.00 0.00 79 1023.5
20260510134128 55 360 14.0 19.0 0.00 0.00 0.00 79 1023.5
20260510134028 54 360 13.0 19.0 0.00 0.00 0.00 80 1023.5
20260510133924 54 33 12.0 19.0 0.00 0.00 0.00 80 1023.5
20260510133824 54 34 13.0 19.0 0.00 0.00 0.00 81 1023.5
20260510133721 54 22 13.0 19.0 0.00 0.00 0.00 81 1023.5
20260510133638 54 34 13.0 19.0 0.00 0.00 0.00 81 1023.5
20260510133532 54 360 12.0 19.0 0.00 0.00 0.00 81 1023.5
20260510133431 54 360 13.0 19.0 0.00 0.00 0.00 81 1023.5
20260510133328 53 360 14.0 19.0 0.00 0.00 0.00 81 1023.5
20260510133231 53 360 15.0 19.0 0.00 0.00 0.00 81 1023.4
20260510133128 53 360 14.0 19.0 0.00 0.00 0.00 81 1023.4
20260510133023 53 360 12.0 18.0 0.00 0.00 0.00 81 1023.4
20260510132919 53 360 13.0 18.0 0.00 0.00 0.00 81 1023.4
20260510132838 53 360 14.0 18.0 0.00 0.00 0.00 81 1023.4
20260510132715 53 360 14.0 18.0 0.00 0.00 0.00 81 1023.4
20260510132618 53 360 13.0 17.0 0.00 0.00 0.00 81 1023.4
20260510132516 53 360 12.0 18.0 0.00 0.00 0.00 81 1023.5
20260510132433 53 360 12.0 18.0 0.00 0.00 0.00 81 1023.5
20260510132333 53 360 12.0 18.0 0.00 0.00 0.00 81 1023.5
20260510132230 53 360 13.0 18.0 0.00 0.00 0.00 81 1023.5
20260510132130 53 360 14.0 18.0 0.00 0.00 0.00 80 1023.5
20260510132044 53 360 14.0 18.0 0.00 0.00 0.00 80 1023.5
20260510131920 53 360 13.0 18.0 0.00 0.00 0.00 80 1023.5
20260510131821 53 360 14.0 18.0 0.00 0.00 0.00 80 1023.4
20260510131724 53 360 15.0 18.0 0.00 0.00 0.00 80 1023.4
20260510131642 53 360 15.0 18.0 0.00 0.00 0.00 80 1023.4
20260510131534 53 360 14.0 17.0 0.00 0.00 0.00 80 1023.4
20260510131430 53 360 14.0 17.0 0.00 0.00 0.00 80 1023.4
20260510131330 53 360 13.0 17.0 0.00 0.00 0.00 80 1023.3
20260510131229 53 360 13.0 18.0 0.00 0.00 0.00 81 1023.3
20260510131126 53 360 12.0 18.0 0.00 0.00 0.00 81 1023.3
20260510131019 53 360 12.0 18.0 0.00 0.00 0.00 81 1023.2
20260510130923 53 360 12.0 18.0 0.00 0.00 0.00 81 1023.3
20260510130844 53 360 12.0 18.0 0.00 0.00 0.00 81 1023.2
20260510130800 53 360 12.0 18.0 0.00 0.00 0.00 81 1023.2
20260510130635 53 360 12.0 18.0 0.00 0.00 0.00 81 1023.2
20260510130528 53 360 11.0 18.0 0.00 0.00 0.00 81 1023.2
20260510130424 53 360 12.0 18.0 0.00 0.00 0.00 81 1023.1
20260510130323 53 360 12.0 18.0 0.00 0.00 0.00 82 1023.1
20260510130219 53 360 11.0 17.0 0.00 0.00 0.00 82 1023.1
20260510130116 53 360 13.0 17.0 0.00 0.00 0.00 81 1023.2
20260510130016 53 360 13.0 17.0 0.00 0.00 0.00 82 1023.1
20260510125933 53 360 12.0 17.0 0.00 0.00 0.00 82 1023.2
20260510125835 53 360 10.0 18.0 0.00 0.00 0.00 82 1023.1
20260510125752 53 360 11.0 18.0 0.00 0.00 0.00 82 1023.1
20260510125628 53 360 12.0 19.0 0.00 0.00 0.00 81 1023.2
20260510125521 53 360 12.0 19.0 0.00 0.00 0.00 81 1023.2
20260510125440 53 360 12.0 21.0 0.00 0.00 0.00 81 1023.1
20260510125321 53 360 12.0 21.0 0.00 0.00 0.00 81 1023.1
20260510125222 53 360 12.0 21.0 0.00 0.00 0.00 81 1023.1
20260510125118 52 360 12.0 21.0 0.00 0.00 0.00 81 1023.1
20260510125032 52 360 12.0 21.0 0.00 0.00 0.00 81 1023.0
20260510124955 52 360 13.0 21.0 0.00 0.00 0.00 81 1023.0
20260510124832 52 360 14.0 21.0 0.00 0.00 0.00 81 1022.9
20260510124731 52 360 15.0 21.0 0.00 0.00 0.00 81 1022.9
20260510124628 53 360 15.0 21.0 0.00 0.00 0.00 81 1022.9
20260510124525 53 360 15.0 21.0 0.00 0.00 0.00 81 1022.9
20260510124445 53 360 14.0 21.0 0.00 0.00 0.00 81 1022.8
20260510124343 53 360 14.0 20.0 0.00 0.00 0.00 81 1022.9
20260510124218 53 360 15.0 20.0 0.00 0.00 0.00 80 1022.8
20260510124121 53 360 15.0 19.0 0.00 0.00 0.00 80 1022.9
20260510124035 53 360 14.0 22.0 0.00 0.00 0.00 80 1022.9
20260510123935 53 360 14.0 22.0 0.00 0.00 0.00 80 1022.9
20260510123834 53 360 13.0 22.0 0.00 0.00 0.00 80 1022.9
20260510123730 53 360 13.0 22.0 0.00 0.00 0.00 80 1022.8
20260510123630 53 360 13.0 22.0 0.00 0.00 0.00 80 1022.8
20260510123531 53 360 13.0 22.0 0.00 0.00 0.00 80 1022.8
20260510123428 53 360 13.0 22.0 0.00 0.00 0.00 80 1022.8
20260510123327 52 360 14.0 22.0 0.00 0.00 0.00 80 1022.8
20260510123226 52 360 16.0 22.0 0.00 0.00 0.00 80 1022.7
20260510123123 52 360 15.0 22.0 0.00 0.00 0.00 80 1022.7
20260510123017 52 360 14.0 20.0 0.00 0.00 0.00 80 1022.7
20260510122918 52 360 15.0 21.0 0.00 0.00 0.00 80 1022.7
20260510122836 52 360 16.0 21.0 0.00 0.00 0.00 80 1022.6
20260510122732 52 360 17.0 21.0 0.00 0.00 0.00 80 1022.5
20260510122630 52 360 17.0 21.0 0.00 0.00 0.00 79 1022.5
20260510122529 52 360 16.0 21.0 0.00 0.00 0.00 79 1022.4
20260510122427 52 360 14.0 21.0 0.00 0.00 0.00 79 1022.5
20260510122325 52 360 16.0 21.0 0.00 0.00 0.00 79 1022.5
20260510122221 52 360 16.0 21.0 0.00 0.00 0.00 79 1022.4
20260510122121 52 360 16.0 21.0 0.00 0.00 0.00 79 1022.4
20260510122018 52 360 16.0 21.0 0.00 0.00 0.00 79 1022.4
20260510121915 52 360 14.0 21.0 0.00 0.00 0.00 78 1022.4
20260510121817 52 360 13.0 20.0 0.00 0.00 0.00 78 1022.4
20260510121733 52 360 13.0 20.0 0.00 0.00 0.00 78 1022.3
20260510121653 52 360 15.0 20.0 0.00 0.00 0.00 78 1022.4
20260510121546 52 360 14.0 20.0 0.00 0.00 0.00 78 1022.3
20260510121421 52 360 14.0 20.0 0.00 0.00 0.00 78 1022.3
20260510121342 52 360 14.0 21.0 0.00 0.00 0.00 78 1022.3
20260510121219 52 360 14.0 21.0 0.00 0.00 0.00 77 1022.3
20260510121140 52 360 16.0 21.0 0.00 0.00 0.00 77 1022.3
20260510121032 53 360 16.0 21.0 0.00 0.00 0.00 77 1022.3
20260510120930 53 360 15.0 21.0 0.00 0.00 0.00 77 1022.3
20260510120849 53 360 13.0 21.0 0.00 0.00 0.00 77 1022.3
20260510120724 53 360 15.0 21.0 0.00 0.00 0.00 77 1022.2
20260510120620 53 360 16.0 21.0 0.00 0.00 0.00 77 1022.3
20260510120534 53 360 16.0 24.0 0.00 0.00 0.00 76 1022.3
20260510120432 53 360 17.0 24.0 0.00 0.00 0.00 76 1022.3
20260510120335 53 360 18.0 24.0 0.00 0.00 0.00 76 1022.4
20260510120231 53 360 17.0 24.0 0.00 0.00 0.00 76 1022.3
20260510120128 53 360 17.0 24.0 0.00 0.00 0.00 76 1022.3
20260510120022 53 360 16.0 24.0 0.00 0.00 0.00 75 1022.2
20260510115920 53 360 16.0 24.0 0.00 0.00 0.00 75 1022.2
20260510115820 53 360 16.0 24.0 0.00 0.00 0.00 75 1022.2
20260510115716 53 360 17.0 24.0 0.00 0.00 0.00 74 1022.1
20260510115621 53 360 19.0 24.0 0.00 0.00 0.00 74 1022.2
20260510115535 53 360 18.0 24.0 0.00 0.00 0.00 74 1022.1
20260510115432 53 360 17.0 22.0 0.00 0.00 0.00 73 1022.1
20260510115332 53 360 17.0 22.0 0.00 0.00 0.00 73 1022.2
20260510115227 54 360 16.0 22.0 0.00 0.00 0.00 72 1022.1
20260510115124 54 360 17.0 22.0 0.00 0.00 0.00 72 1022.2
20260510115016 54 360 16.0 23.0 0.00 0.00 0.00 72 1022.1
20260510114916 54 360 17.0 23.0 0.00 0.00 0.00 71 1022.1
20260510114819 54 360 17.0 26.0 0.00 0.00 0.00 71 1022.1
20260510114735 54 360 18.0 26.0 0.00 0.00 0.00 71 1022.0
20260510114632 54 360 18.0 26.0 0.00 0.00 0.00 69 1022.1
20260510114529 54 360 17.0 26.0 0.00 0.00 0.00 69 1022.1
20260510114427 54 360 16.0 26.0 0.00 0.00 0.00 69 1022.1
20260510114323 54 360 17.0 26.0 0.00 0.00 0.00 69 1022.0
20260510114219 54 360 18.0 26.0 0.00 0.00 0.00 69 1021.9
20260510114123 54 360 18.0 26.0 0.00 0.00 0.00 69 1021.9
20260510114017 54 360 19.0 26.0 0.00 0.00 0.00 69 1021.8
20260510113917 54 360 21.0 26.0 0.00 0.00 0.00 69 1021.8
20260510113835 54 360 20.0 26.0 0.00 0.00 0.00 68 1021.8
20260510113731 53 360 17.0 24.0 0.00 0.00 0.00 68 1021.8
20260510113629 53 360 15.0 20.0 0.00 0.00 0.00 68 1021.7
20260510113523 53 360 15.0 20.0 0.00 0.00 0.00 68 1021.7
20260510113427 53 360 16.0 20.0 0.00 0.00 0.00 68 1021.7
20260510113328 53 360 16.0 20.0 0.00 0.00 0.00 68 1021.7
20260510113244 53 360 15.0 20.0 0.00 0.00 0.00 68 1021.7
20260510113140 53 360 14.0 20.0 0.00 0.00 0.00 68 1021.6
20260510113035 53 360 15.0 20.0 0.00 0.00 0.00 68 1021.6
20260510112934 53 360 16.0 21.0 0.00 0.00 0.00 67 1021.6
20260510112833 53 360 16.0 21.0 0.00 0.00 0.00 67 1021.6
20260510112749 53 360 16.0 21.0 0.00 0.00 0.00 67 1021.6
20260510112624 53 360 16.0 21.0 0.00 0.00 0.00 67 1021.6
20260510112517 53 360 15.0 21.0 0.00 0.00 0.00 67 1021.6
20260510112418 53 360 15.0 21.0 0.00 0.00 0.00 67 1021.7
20260510112336 53 360 15.0 21.0 0.00 0.00 0.00 67 1021.6
20260510112235 53 360 14.0 21.0 0.00 0.00 0.00 67 1021.6
20260510112131 53 360 15.0 21.0 0.00 0.00 0.00 67 1021.5
20260510112024 53 360 15.0 21.0 0.00 0.00 0.00 67 1021.6
20260510111920 53 360 14.0 19.0 0.00 0.00 0.00 67 1021.5
20260510111823 53 360 14.0 19.0 0.00 0.00 0.00 67 1021.5
20260510111739 53 360 15.0 19.0 0.00 0.00 0.00 67 1021.5
20260510111635 53 360 15.0 19.0 0.00 0.00 0.00 67 1021.5
20260510111527 53 360 14.0 19.0 0.00 0.00 0.00 67 1021.4
20260510111430 53 360 13.0 18.0 0.00 0.00 0.00 67 1021.4
20260510111331 53 360 14.0 18.0 0.00 0.00 0.00 67 1021.4
20260510111230 53 360 14.0 18.0 0.00 0.00 0.00 67 1021.4
20260510111128 53 360 14.0 18.0 0.00 0.00 0.00 67 1021.5
20260510111022 53 360 13.0 18.0 0.00 0.00 0.00 67 1021.5
20260510110921 53 360 13.0 17.0 0.00 0.00 0.00 67 1021.5
20260510110840 53 360 12.0 17.0 0.00 0.00 0.00 67 1021.5
20260510110719 53 360 12.0 17.0 0.00 0.00 0.00 67 1021.4
20260510110617 53 360 12.0 17.0 0.00 0.00 0.00 67 1021.5
20260510110531 53 360 12.0 17.0 0.00 0.00 0.00 67 1021.5
20260510110416 53 360 11.0 17.0 0.00 0.00 0.00 67 1021.5
20260510110334 53 360 12.0 17.0 0.00 0.00 0.00 67 1021.5
20260510110253 53 360 12.0 17.0 0.00 0.00 0.00 67 1021.4
20260510110129 53 360 11.0 17.0 0.00 0.00 0.00 67 1021.4
20260510110021 53 360 12.0 17.0 0.00 0.00 0.00 67 1021.4
20260510105918 53 360 13.0 17.0 0.00 0.00 0.00 67 1021.3
20260510105819 53 360 13.0 19.0 0.00 0.00 0.00 67 1021.2
20260510105718 53 360 12.0 19.0 0.00 0.00 0.00 67 1021.1
20260510105617 53 360 12.0 19.0 0.00 0.00 0.00 67 1021.1
20260510105531 53 360 13.0 19.0 0.00 0.00 0.00 67 1021.0
20260510105448 53 360 13.0 19.0 0.00 0.00 0.00 67 1020.9
20260510105329 53 360 13.0 19.0 0.00 0.00 0.00 68 1020.8
20260510105225 53 360 13.0 19.0 0.00 0.00 0.00 68 1020.7
20260510105124 53 360 13.0 19.0 0.00 0.00 0.00 68 1020.6
20260510105022 53 360 12.0 19.0 0.00 0.00 0.00 68 1020.6
20260510104918 53 360 13.0 19.0 0.00 0.00 0.00 68 1020.6
20260510104818 53 360 12.0 19.0 0.00 0.00 0.00 68 1020.5
20260510104717 53 360 11.0 15.0 0.00 0.00 0.00 68 1020.5
20260510104634 53 360 11.0 15.0 0.00 0.00 0.00 68 1020.4
20260510104530 53 360 11.0 15.0 0.00 0.00 0.00 68 1020.5
20260510104429 53 360 12.0 15.0 0.00 0.00 0.00 68 1020.5
20260510104329 53 360 12.0 15.0 0.00 0.00 0.00 68 1020.5
20260510104244 53 360 11.0 15.0 0.00 0.00 0.00 68 1020.5
20260510104119 53 360 12.0 15.0 0.00 0.00 0.00 68 1020.5
20260510104018 53 360 12.0 15.0 0.00 0.00 0.00 68 1020.5
20260510103916 53 360 11.0 15.0 0.00 0.00 0.00 68 1020.5
20260510103834 53 360 12.0 15.0 0.00 0.00 0.00 68 1020.5
20260510103731 53 360 11.0 15.0 0.00 0.00 0.00 68 1020.4
20260510103631 53 360 10.0 15.0 0.00 0.00 0.00 68 1020.4
20260510103524 53 360 10.0 15.0 0.00 0.00 0.00 68 1020.3
20260510103426 53 360 10.0 15.0 0.00 0.00 0.00 68 1020.3
20260510103330 53 360 11.0 15.0 0.00 0.00 0.00 68 1020.3
20260510103250 53 360 11.0 15.0 0.00 0.00 0.00 68 1020.3
20260510103126 53 360 10.0 15.0 0.00 0.00 0.00 68 1020.3
20260510103023 53 360 11.0 15.0 0.00 0.00 0.00 68 1020.2
20260510102920 53 360 11.0 15.0 0.00 0.00 0.00 68 1020.2
20260510102821 53 360 11.0 15.0 0.00 0.00 0.00 68 1020.2
20260510102717 53 360 11.0 16.0 0.00 0.00 0.00 68 1020.1
20260510102635 53 360 12.0 16.0 0.00 0.00 0.00 68 1020.0
20260510102533 53 360 12.0 16.0 0.00 0.00 0.00 68 1020.0
20260510102430 53 360 12.0 16.0 0.00 0.00 0.00 68 1020.0
20260510102349 53 360 11.0 17.0 0.00 0.00 0.00 67 1019.9
20260510102224 53 360 11.0 17.0 0.00 0.00 0.00 67 1019.9
20260510102142 53 360 11.0 19.0 0.00 0.00 0.00 67 1019.9
20260510102016 53 360 12.0 19.0 0.00 0.00 0.00 67 1019.9
20260510101932 53 360 13.0 19.0 0.00 0.00 0.00 67 1019.9
20260510101853 53 360 13.0 19.0 0.00 0.00 0.00 67 1019.8
20260510101728 53 360 12.0 19.0 0.00 0.00 0.00 67 1019.9
20260510101632 53 360 12.0 19.0 0.00 0.00 0.00 67 1019.8
20260510101526 53 360 13.0 19.0 0.00 0.00 0.00 67 1019.9
20260510101426 53 360 14.0 19.0 0.00 0.00 0.00 67 1019.8
20260510101324 53 360 13.0 19.0 0.00 0.00 0.00 67 1019.8
20260510101219 53 360 14.0 19.0 0.00 0.00 0.00 67 1019.8
20260510101137 53 360 13.0 17.0 0.00 0.00 0.00 67 1019.8
20260510101054 53 360 13.0 17.0 0.00 0.00 0.00 67 1019.8
20260510100932 53 360 12.0 17.0 0.00 0.00 0.00 67 1019.8
20260510100850 53 360 11.0 17.0 0.00 0.00 0.00 66 1019.8
20260510100755 53 360 11.0 17.0 0.00 0.00 0.00 66 1019.8
20260510100631 54 360 11.0 17.0 0.00 0.00 0.00 66 1019.9
20260510100528 54 360 12.0 17.0 0.00 0.00 0.00 66 1019.7
20260510100425 54 360 13.0 17.0 0.00 0.00 0.00 66 1019.8
20260510100324 54 360 13.0 17.0 0.00 0.00 0.00 66 1019.7
20260510100221 54 360 12.0 17.0 0.00 0.00 0.00 66 1019.7
20260510100118 54 360 11.0 18.0 0.00 0.00 0.00 66 1019.6
20260510100016 54 360 13.0 18.0 0.00 0.00 0.00 66 1019.6
20260510095936 54 360 14.0 18.0 0.00 0.00 0.00 66 1019.5
20260510095834 54 360 13.0 18.0 0.00 0.00 0.00 66 1019.5
20260510095733 54 360 13.0 19.0 0.00 0.00 0.00 66 1019.5
20260510095630 54 360 13.0 20.0 0.00 0.00 0.00 66 1019.4
20260510095544 54 360 14.0 20.0 0.00 0.00 0.00 66 1019.3
20260510095420 54 360 14.0 20.0 0.00 0.00 0.00 66 1019.3
20260510095338 54 360 14.0 20.0 0.00 0.00 0.00 66 1019.3
20260510095218 54 360 14.0 21.0 0.00 0.00 0.00 66 1019.3
20260510095135 54 360 14.0 21.0 0.00 0.00 0.00 66 1019.2
20260510095032 54 360 14.0 21.0 0.00 0.00 0.00 66 1019.2
20260510094929 54 360 15.0 21.0 0.00 0.00 0.00 66 1019.2
20260510094826 54 360 15.0 21.0 0.00 0.00 0.00 66 1019.2
20260510094743 54 360 15.0 21.0 0.00 0.00 0.00 66 1019.1
20260510094700 54 360 14.0 21.0 0.00 0.00 0.00 66 1019.1
20260510094534 54 360 14.0 21.0 0.00 0.00 0.00 65 1019.0
20260510094430 54 360 16.0 21.0 0.00 0.00 0.00 65 1019.0
20260510094330 54 360 16.0 21.0 0.00 0.00 0.00 65 1019.0
20260510094229 54 360 16.0 21.0 0.00 0.00 0.00 66 1019.0
20260510094126 54 360 16.0 21.0 0.00 0.00 0.00 65 1018.9
20260510094020 54 360 15.0 21.0 0.00 0.00 0.00 66 1019.0
20260510093920 54 360 16.0 23.0 0.00 0.00 0.00 66 1018.9
20260510093817 54 360 16.0 23.0 0.00 0.00 0.00 65 1018.9
20260510093716 54 360 16.0 23.0 0.00 0.00 0.00 65 1018.9
20260510093613 54 360 16.0 23.0 0.00 0.00 0.00 65 1018.8
20260510093514 54 360 16.0 23.0 0.00 0.00 0.00 65 1018.7
20260510093417 54 360 15.0 23.0 0.00 0.00 0.00 65 1018.6
20260510093335 54 360 15.0 23.0 0.00 0.00 0.00 65 1018.7
20260510093232 54 360 15.0 23.0 0.00 0.00 0.00 65 1018.7
20260510093132 54 360 17.0 23.0 0.00 0.00 0.00 66 1018.6
20260510093028 54 360 17.0 23.0 0.00 0.00 0.00 65 1018.6
20260510092945 54 360 15.0 23.0 0.00 0.00 0.00 65 1018.6
20260510092824 54 360 15.0 23.0 0.00 0.00 0.00 65 1018.5
20260510092740 54 360 16.0 23.0 0.00 0.00 0.00 65 1018.5
20260510092620 54 360 17.0 23.0 0.00 0.00 0.00 65 1018.4
20260510092535 54 360 18.0 23.0 0.00 0.00 0.00 65 1018.4
20260510092433 54 360 18.0 23.0 0.00 0.00 0.00 65 1018.5
20260510092333 54 360 16.0 23.0 0.00 0.00 0.00 65 1018.5
20260510092230 54 360 17.0 23.0 0.00 0.00 0.00 65 1018.4
20260510092127 54 360 18.0 23.0 0.00 0.00 0.00 65 1018.5
20260510092020 54 360 17.0 23.0 0.00 0.00 0.00 65 1018.4
20260510091924 54 360 18.0 23.0 0.00 0.00 0.00 65 1018.4
20260510091822 54 360 17.0 23.0 0.00 0.00 0.00 65 1018.5
20260510091719 54 360 17.0 23.0 0.00 0.00 0.00 65 1018.4
20260510091619 54 360 17.0 23.0 0.00 0.00 0.00 65 1018.5
20260510091513 54 360 18.0 24.0 0.00 0.00 0.00 65 1018.5
20260510091434 54 360 18.0 25.0 0.00 0.00 0.00 65 1018.5
20260510091320 54 360 17.0 25.0 0.00 0.00 0.00 65 1018.5
20260510091237 54 360 17.0 25.0 0.00 0.00 0.00 65 1018.5
20260510091133 55 360 16.0 25.0 0.00 0.00 0.00 65 1018.5
20260510091026 55 360 18.0 25.0 0.00 0.00 0.00 65 1018.6
20260510090924 55 360 19.0 25.0 0.00 0.00 0.00 65 1018.4
20260510090823 55 360 18.0 25.0 0.00 0.00 0.00 65 1018.4
20260510090721 55 360 18.0 25.0 0.00 0.00 0.00 65 1018.5
20260510090638 55 360 19.0 25.0 0.00 0.00 0.00 65 1018.6
20260510090552 55 360 18.0 25.0 0.00 0.00 0.00 65 1018.5
20260510090432 55 360 17.0 25.0 0.00 0.00 0.00 65 1018.5
20260510090331 55 360 17.0 25.0 0.00 0.00 0.00 65 1018.4
20260510090232 55 360 18.0 27.0 0.00 0.00 0.00 65 1018.5
20260510090129 55 360 20.0 28.0 0.00 0.00 0.00 65 1018.5
20260510090021 55 360 20.0 28.0 0.00 0.00 0.00 65 1018.4
20260510085918 55 360 20.0 28.0 0.00 0.00 0.00 65 1018.4
20260510085838 55 360 20.0 28.0 0.00 0.00 0.00 64 1018.4
20260510085734 55 360 20.0 28.0 0.00 0.00 0.00 64 1018.3
20260510085630 55 360 18.0 28.0 0.00 0.00 0.00 64 1018.3
20260510085528 55 360 18.0 28.0 0.00 0.00 0.00 64 1018.3
20260510085426 55 360 20.0 28.0 0.00 0.00 0.00 64 1018.3
20260510085343 55 360 21.0 28.0 0.00 0.00 0.00 64 1018.3
20260510085222 55 360 22.0 28.0 0.00 0.00 0.00 64 1018.3
20260510085139 55 360 21.0 27.0 0.00 0.00 0.00 64 1018.3
20260510085052 55 360 21.0 27.0 0.00 0.00 0.00 64 1018.3
20260510084947 55 360 21.0 27.0 0.00 0.00 0.00 64 1018.2
20260510084824 55 360 21.0 29.0 0.00 0.00 0.00 63 1018.3
20260510084723 55 360 22.0 29.0 0.00 0.00 0.00 63 1018.2
20260510084623 55 360 20.0 29.0 0.00 0.00 0.00 63 1018.2
20260510084537 55 360 19.0 29.0 0.00 0.00 0.00 63 1018.1
20260510084433 55 360 19.0 29.0 0.00 0.00 0.00 63 1018.2
20260510084331 55 360 20.0 29.0 0.00 0.00 0.00 63 1018.2
20260510084228 55 360 21.0 31.0 0.00 0.00 0.00 63 1018.1
20260510084125 55 360 21.0 31.0 0.00 0.00 0.00 63 1018.1
20260510084038 55 360 21.0 31.0 0.00 0.00 0.00 63 1018.1
20260510083934 55 360 21.0 31.0 0.00 0.00 0.00 63 1018.1
20260510083832 56 360 20.0 31.0 0.00 0.00 0.00 63 1018.0
20260510083731 56 360 21.0 31.0 0.00 0.00 0.00 63 1018.0
20260510083654 56 360 22.0 31.0 0.00 0.00 0.00 63 1018.0
20260510083528 56 360 24.0 31.0 0.00 0.00 0.00 62 1018.0
20260510083424 56 360 23.0 31.0 0.00 0.00 0.00 62 1018.0
20260510083326 56 360 23.0 31.0 0.00 0.00 0.00 62 1018.1
20260510083242 56 360 21.0 31.0 0.00 0.00 0.00 62 1018.1
20260510083138 56 360 19.0 31.0 0.00 0.00 0.00 62 1018.0
20260510083035 56 360 20.0 31.0 0.00 0.00 0.00 62 1018.0
20260510082952 56 360 22.0 31.0 0.00 0.00 0.00 62 1017.9
20260510082829 56 360 24.0 31.0 0.00 0.00 0.00 62 1017.9
20260510082729 56 360 25.0 31.0 0.00 0.00 0.00 62 1017.9
20260510082629 56 360 25.0 31.0 0.00 0.00 0.00 62 1017.9
20260510082523 56 360 23.0 31.0 0.00 0.00 0.00 62 1017.9
20260510082420 56 360 23.0 33.0 0.00 0.00 0.00 62 1018.0
20260510082319 56 360 24.0 33.0 0.00 0.00 0.00 62 1017.7
20260510082216 56 360 24.0 33.0 0.00 0.00 0.00 62 1017.9
20260510082133 56 360 24.0 33.0 0.00 0.00 0.00 62 1017.7
20260510082031 56 360 24.0 33.0 0.00 0.00 0.00 62 1017.8
20260510081928 56 360 23.0 33.0 0.00 0.00 0.00 62 1017.8
20260510081830 56 360 24.0 33.0 0.00 0.00 0.00 62 1017.5
20260510081727 56 360 24.0 33.0 0.00 0.00 0.00 62 1017.6
20260510081627 56 360 24.0 33.0 0.00 0.00 0.00 62 1017.7
20260510081521 56 360 23.0 33.0 0.00 0.00 0.00 63 1017.6
20260510081441 56 360 24.0 32.0 0.00 0.00 0.00 63 1017.6
20260510081321 56 360 23.0 32.0 0.00 0.00 0.00 63 1017.6
20260510081241 56 360 22.0 32.0 0.00 0.00 0.00 63 1017.7
20260510081117 56 360 22.0 32.0 0.00 0.00 0.00 63 1017.6
20260510081017 56 360 23.0 32.0 0.00 0.00 0.00 63 1017.6
20260510080935 56 360 24.0 32.0 0.00 0.00 0.00 63 1017.7
20260510080832 56 360 24.0 32.0 0.00 0.00 0.00 63 1017.6
20260510080729 56 360 24.0 32.0 0.00 0.00 0.00 64 1017.7
20260510080625 56 360 22.0 29.0 0.00 0.00 0.00 64 1017.6
20260510080524 56 360 22.0 28.0 0.00 0.00 0.00 64 1017.6
20260510080422 56 360 22.0 28.0 0.00 0.00 0.00 64 1017.6
20260510080321 56 360 21.0 28.0 0.00 0.00 0.00 64 1017.5
20260510080218 56 360 20.0 28.0 0.00 0.00 0.00 64 1017.6
20260510080115 56 360 20.0 28.0 0.00 0.00 0.00 64 1017.6
20260510080032 56 360 21.0 28.0 0.00 0.00 0.00 64 1017.7
20260510075929 56 360 22.0 32.0 0.00 0.00 0.00 64 1017.8
20260510075834 56 360 21.0 32.0 0.00 0.00 0.00 64 1017.7
20260510075754 56 360 19.0 32.0 0.00 0.00 0.00 64 1017.8
20260510075631 56 360 20.0 32.0 0.00 0.00 0.00 64 1017.9
20260510075525 56 360 20.0 32.0 0.00 0.00 0.00 64 1017.9
20260510075445 56 360 20.0 32.0 0.00 0.00 0.00 64 1017.8
20260510075322 56 360 21.0 32.0 0.00 0.00 0.00 64 1017.7
20260510075220 56 360 22.0 32.0 0.00 0.00 0.00 64 1017.7
20260510075119 56 360 24.0 32.0 0.00 0.00 0.00 64 1017.6
20260510075034 56 360 23.0 32.0 0.00 0.00 0.00 64 1017.6
20260510074950 56 360 21.0 32.0 0.00 0.00 0.00 64 1017.6
20260510074831 56 360 21.0 32.0 0.00 0.00 0.00 64 1017.5
20260510074727 56 360 22.0 32.0 0.00 0.00 0.00 64 1017.6
20260510074624 56 360 24.0 32.0 0.00 0.00 0.00 64 1017.6
20260510074521 56 360 22.0 34.0 0.00 0.00 0.00 64 1017.5
20260510074418 57 360 22.0 34.0 0.00 0.00 0.00 64 1017.4
20260510074320 57 360 23.0 34.0 0.00 0.00 0.00 64 1017.3
20260510074220 57 360 24.0 34.0 0.00 0.00 0.00 64 1017.4
20260510074120 57 360 26.0 34.0 0.00 0.00 0.00 64 1017.4
20260510074034 57 360 24.0 34.0 0.00 0.00 0.00 64 1017.4
20260510073950 57 360 23.0 36.0 0.00 0.00 0.00 64 1017.3
20260510073827 57 360 25.0 36.0 0.00 0.00 0.00 63 1017.3
20260510073746 57 360 25.0 36.0 0.00 0.00 0.00 63 1017.3
20260510073642 57 360 25.0 36.0 0.00 0.00 0.00 63 1017.2
20260510073534 57 360 23.0 36.0 0.00 0.00 0.00 63 1017.2
20260510073431 57 360 21.0 36.0 0.00 0.00 0.00 63 1017.1
20260510073349 57 360 22.0 36.0 0.00 0.00 0.00 63 1017.2
20260510073228 57 360 24.0 36.0 0.00 0.00 0.00 63 1017.2
20260510073125 57 360 25.0 36.0 0.00 0.00 0.00 63 1017.1
20260510073022 57 360 24.0 36.0 0.00 0.00 0.00 63 1017.0
20260510072919 57 360 23.0 32.0 0.00 0.00 0.00 63 1017.1
20260510072822 57 360 24.0 32.0 0.00 0.00 0.00 63 1017.2
20260510072718 57 360 21.0 27.0 0.00 0.00 0.00 63 1017.3
20260510072635 57 360 20.0 29.0 0.00 0.00 0.00 62 1017.4
20260510072556 58 360 20.0 29.0 0.00 0.00 0.00 62 1017.4
20260510072432 58 360 21.0 30.0 0.00 0.00 0.00 62 1017.5
20260510072330 58 360 22.0 30.0 0.00 0.00 0.00 62 1017.4
20260510072230 58 360 21.0 32.0 0.00 0.00 0.00 62 1017.4
20260510072126 58 360 21.0 32.0 0.00 0.00 0.00 62 1017.4
20260510072021 58 360 21.0 34.0 0.00 0.00 0.00 62 1017.4
20260510071925 58 360 20.0 34.0 0.00 0.00 0.00 62 1017.4
20260510071827 58 360 21.0 34.0 0.00 0.00 0.00 62 1017.2
20260510071722 58 360 20.0 34.0 0.00 0.00 0.00 62 1017.0
20260510071623 58 360 22.0 35.0 0.00 0.00 0.00 62 1016.9
20260510071517 58 360 24.0 35.0 0.00 0.00 0.00 61 1016.8
20260510071434 58 360 26.0 35.0 0.00 0.00 0.00 61 1016.7
20260510071331 58 360 25.0 35.0 0.00 0.00 0.00 61 1016.6
20260510071230 58 360 26.0 35.0 0.00 0.00 0.00 61 1016.4
20260510071126 58 360 29.0 35.0 0.00 0.00 0.00 61 1016.4
20260510071023 58 360 27.0 35.0 0.00 0.00 0.00 61 1016.3
20260510070923 58 360 25.0 35.0 0.00 0.00 0.00 61 1016.2
20260510070822 58 360 25.0 35.0 0.00 0.00 0.00 61 1016.5
20260510070718 58 360 25.0 35.0 0.00 0.00 0.00 61 1016.3
20260510070635 58 360 23.0 32.0 0.00 0.00 0.00 61 1016.5
20260510070553 58 360 24.0 32.0 0.00 0.00 0.00 61 1016.4
20260510070432 58 360 24.0 32.0 0.00 0.00 0.00 61 1016.4
20260510070330 59 360 25.0 32.0 0.00 0.00 0.00 61 1016.4
20260510070250 59 360 25.0 32.0 0.00 0.00 0.00 61 1016.5
20260510070152 59 360 25.0 32.0 0.00 0.00 0.00 61 1016.5
20260510070025 59 360 26.0 32.0 0.00 0.00 0.00 61 1016.6
20260510065922 59 360 25.0 32.0 0.00 0.00 0.00 61 1016.6
20260510065824 59 360 25.0 32.0 0.00 0.00 0.00 61 1016.7
20260510065721 59 360 23.0 32.0 0.00 0.00 0.00 61 1016.7
20260510065620 59 360 23.0 32.0 0.00 0.00 0.00 61 1016.8
20260510065534 59 360 25.0 32.0 0.00 0.00 0.00 61 1016.8
20260510065451 59 360 25.0 32.0 0.00 0.00 0.00 62 1016.8
20260510065314 59 360 25.0 32.0 0.00 0.00 0.00 62 1016.8
20260510065234 59 360 26.0 32.0 0.00 0.00 0.00 62 1016.7
20260510065131 59 360 25.0 32.0 0.00 0.00 0.00 62 1016.9
20260510065044 59 360 24.0 30.0 0.00 0.00 0.00 62 1016.7
20260510064919 59 360 24.0 33.0 0.00 0.00 0.00 62 1016.8
20260510064820 59 360 25.0 33.0 0.00 0.00 0.00 62 1016.7
20260510064736 59 360 24.0 33.0 0.00 0.00 0.00 62 1016.8
20260510064638 59 360 24.0 33.0 0.00 0.00 0.00 63 1016.8
20260510064552 59 360 22.0 33.0 0.00 0.00 0.00 63 1016.8
20260510064431 59 360 22.0 33.0 0.00 0.00 0.00 62 1016.9
20260510064332 59 360 21.0 33.0 0.00 0.00 0.00 62 1016.9
20260510064228 59 360 20.0 35.0 0.00 0.00 0.00 62 1016.9
20260510064148 59 360 24.0 35.0 0.00 0.00 0.00 62 1016.9
20260510064041 59 360 25.0 35.0 0.00 0.00 0.00 62 1017.0
20260510063917 59 360 24.0 35.0 0.00 0.00 0.00 62 1016.9
20260510063818 59 360 25.0 35.0 0.00 0.00 0.00 62 1017.0
20260510063718 59 360 26.0 35.0 0.00 0.00 0.00 62 1017.0
20260510063620 59 360 27.0 35.0 0.00 0.00 0.00 62 1017.0
20260510063535 59 360 27.0 35.0 0.00 0.00 0.00 62 1016.9
20260510063432 59 360 27.0 35.0 0.00 0.00 0.00 62 1016.9
20260510063333 59 360 27.0 35.0 0.00 0.00 0.00 62 1016.8
20260510063249 59 360 24.0 35.0 0.00 0.00 0.00 62 1016.8
20260510063125 59 360 25.0 35.0 0.00 0.00 0.00 62 1016.7
20260510063018 59 360 23.0 35.0 0.00 0.00 0.00 62 1016.6
20260510062922 59 360 23.0 33.0 0.00 0.00 0.00 62 1016.8
20260510062821 59 360 26.0 33.0 0.00 0.00 0.00 62 1016.7
20260510062737 59 360 26.0 33.0 0.00 0.00 0.00 62 1016.6
20260510062633 59 360 26.0 33.0 0.00 0.00 0.00 62 1016.7
20260510062530 59 360 28.0 33.0 0.00 0.00 0.00 62 1016.6
20260510062427 59 360 25.0 33.0 0.00 0.00 0.00 62 1016.6
20260510062326 59 360 25.0 33.0 0.00 0.00 0.00 62 1016.6
20260510062221 59 360 24.0 33.0 0.00 0.00 0.00 62 1016.6
20260510062141 59 360 23.0 33.0 0.00 0.00 0.00 62 1016.7
20260510062037 59 360 22.0 31.0 0.00 0.00 0.00 62 1016.5
20260510061933 59 360 23.0 31.0 0.00 0.00 0.00 62 1016.6
20260510061831 59 360 24.0 31.0 0.00 0.00 0.00 62 1016.6
20260510061726 59 360 24.0 31.0 0.00 0.00 0.00 62 1016.7
20260510061623 59 360 22.0 30.0 0.00 0.00 0.00 62 1016.6
20260510061519 59 360 22.0 30.0 0.00 0.00 0.00 62 1016.7
20260510061416 59 360 22.0 30.0 0.00 0.00 0.00 61 1016.7
20260510061315 60 360 22.0 27.0 0.00 0.00 0.00 61 1016.7
20260510061218 60 360 22.0 27.0 0.00 0.00 0.00 61 1016.7
20260510061116 60 360 21.0 27.0 0.00 0.00 0.00 61 1016.7
20260510061033 60 360 20.0 27.0 0.00 0.00 0.00 61 1016.8
20260510060929 60 360 19.0 27.0 0.00 0.00 0.00 61 1016.7
20260510060829 60 360 20.0 27.0 0.00 0.00 0.00 61 1016.7
20260510060725 60 360 20.0 27.0 0.00 0.00 0.00 61 1016.7
20260510060622 60 360 19.0 27.0 0.00 0.00 0.00 61 1016.5
20260510060519 60 360 18.0 27.0 0.00 0.00 0.00 61 1016.5
20260510060420 60 360 18.0 28.0 0.00 0.00 0.00 61 1016.4
20260510060318 60 360 17.0 29.0 0.00 0.00 0.00 61 1016.3
20260510060217 60 360 17.0 29.0 0.00 0.00 0.00 61 1016.2
20260510060134 60 360 18.0 29.0 0.00 0.00 0.00 61 1016.1
20260510060028 60 360 18.0 29.0 0.00 0.00 0.00 61 1016.0
20260510055935 60 360 20.0 29.0 0.00 0.00 0.00 61 1015.9
20260510055834 60 360 21.0 29.0 0.00 0.00 0.00 61 1016.0
20260510055754 60 360 21.0 29.0 0.00 0.00 0.00 61 1016.0
20260510055615 60 360 21.0 29.0 0.00 0.00 0.00 61 1015.9
20260510055532 60 360 23.0 29.0 0.00 0.00 0.00 61 1015.9
20260510055449 60 360 22.0 29.0 0.00 0.00 0.00 61 1015.8
20260510055327 60 360 21.0 29.0 0.00 0.00 0.00 61 1015.7
20260510055223 60 360 20.0 27.0 0.00 0.00 0.00 61 1015.6
20260510055123 60 360 19.0 27.0 0.00 0.00 0.00 61 1015.5
20260510055017 61 360 17.0 27.0 0.00 0.00 0.00 61 1015.4
20260510054916 61 360 19.0 27.0 0.00 0.00 0.00 61 1015.4
20260510054818 61 360 19.0 27.0 0.00 0.00 0.00 61 1015.4
20260510054734 61 360 20.0 27.0 0.00 0.00 0.00 60 1015.4
20260510054631 61 360 18.0 23.0 0.00 0.00 0.00 60 1015.3
20260510054545 61 360 17.0 23.0 0.00 0.00 0.00 60 1015.4
20260510054422 61 360 16.0 22.0 0.00 0.00 0.00 60 1015.4
20260510054320 61 360 16.0 22.0 0.00 0.00 0.00 60 1015.4
20260510054215 61 360 16.0 22.0 0.00 0.00 0.00 60 1015.4
20260510054117 61 360 16.0 22.0 0.00 0.00 0.00 59 1015.3
20260510054016 61 360 16.0 22.0 0.00 0.00 0.00 59 1015.2
20260510053935 61 360 16.0 22.0 0.00 0.00 0.00 59 1015.2
20260510053833 61 360 16.0 22.0 0.00 0.00 0.00 59 1015.2
20260510053731 61 360 18.0 22.0 0.00 0.00 0.00 59 1015.3
20260510053628 61 360 18.0 22.0 0.00 0.00 0.00 59 1015.3
20260510053541 61 360 15.0 22.0 0.00 0.00 0.00 59 1015.1
20260510053417 61 360 14.0 19.0 0.00 0.00 0.00 59 1015.2
20260510053315 61 360 14.0 19.0 0.00 0.00 0.00 58 1015.1
20260510053215 61 360 13.0 18.0 0.00 0.00 0.00 58 1015.0
20260510053141 61 360 12.0 16.0 0.00 0.00 0.00 58 1015.0
20260510053034 61 360 12.0 16.0 0.00 0.00 0.00 58 1014.9
20260510052931 61 360 12.0 16.0 0.00 0.00 0.00 58 1014.8
20260510052830 61 360 13.0 15.0 0.00 0.00 0.00 58 1014.7
20260510052746 61 360 12.0 15.0 0.00 0.00 0.00 58 1014.7
20260510052622 61 360 12.0 15.0 0.00 0.00 0.00 58 1014.6
20260510052518 61 360 11.0 14.0 0.00 0.00 0.00 58 1014.5
20260510052420 61 360 11.0 14.0 0.00 0.00 0.00 58 1014.5
20260510052324 61 360 11.0 14.0 0.00 0.00 0.00 58 1014.5
20260510052224 61 360 10.0 14.0 0.00 0.00 0.00 58 1014.4
20260510052121 61 360 11.0 14.0 0.00 0.00 0.00 58 1014.4
20260510052037 61 360 10.0 14.0 0.00 0.00 0.00 57 1014.4
20260510051934 61 360 10.0 14.0 0.00 0.00 0.00 57 1014.3
20260510051832 61 360 10.0 14.0 0.00 0.00 0.00 57 1014.3
20260510051729 61 360 10.0 14.0 0.00 0.00 0.00 57 1014.2
20260510051628 61 360 9.0 12.0 0.00 0.00 0.00 57 1014.2
20260510051522 61 360 9.0 12.0 0.00 0.00 0.00 57 1014.3
20260510051427 61 360 10.0 12.0 0.00 0.00 0.00 57 1014.4
20260510051329 61 360 10.0 12.0 0.00 0.00 0.00 57 1014.4
20260510051225 61 360 9.0 13.0 0.00 0.00 0.00 57 1014.4
20260510051124 61 360 10.0 13.0 0.00 0.00 0.00 57 1014.3
20260510051018 61 360 10.0 13.0 0.00 0.00 0.00 57 1014.2
20260510050916 61 360 10.0 13.0 0.00 0.00 0.00 56 1014.1
20260510050820 61 360 10.0 13.0 0.00 0.00 0.00 56 1014.1
20260510050719 61 360 10.0 13.0 0.00 0.00 0.00 56 1014.0
20260510050620 61 360 10.0 13.0 0.00 0.00 0.00 56 1014.0
20260510050534 61 360 10.0 13.0 0.00 0.00 0.00 56 1014.0
20260510050433 61 360 10.0 13.0 0.00 0.00 0.00 56 1014.0
20260510050334 62 360 10.0 13.0 0.00 0.00 0.00 56 1014.0
20260510050230 62 360 10.0 13.0 0.00 0.00 0.00 56 1013.9
20260510050127 62 360 10.0 13.0 0.00 0.00 0.00 56 1013.9
20260510050026 62 360 11.0 13.0 0.00 0.00 0.00 56 1013.9
20260510045943 62 360 11.0 13.0 0.00 0.00 0.00 56 1013.8
20260510045820 62 360 11.0 13.0 0.00 0.00 0.00 56 1013.8
20260510045739 62 360 11.0 13.0 0.00 0.00 0.00 55 1013.8
20260510045638 62 360 11.0 13.0 0.00 0.00 0.00 55 1013.7
20260510045532 62 360 11.0 13.0 0.00 0.00 0.00 55 1013.8
20260510045453 62 360 10.0 13.0 0.00 0.00 0.00 55 1013.8
20260510045332 62 360 10.0 13.0 0.00 0.00 0.00 55 1013.8
20260510045230 62 360 9.0 13.0 0.00 0.00 0.00 55 1013.8
20260510045126 62 360 9.0 13.0 0.00 0.00 0.00 55 1013.8
20260510045024 62 360 9.0 13.0 0.00 0.00 0.00 55 1013.8
20260510044948 62 360 9.0 13.0 0.00 0.00 0.00 55 1013.8
20260510044907 62 360 10.0 13.0 0.00 0.00 0.00 55 1013.8
20260510044743 62 360 9.0 13.0 0.00 0.00 0.00 55 1013.8
20260510044616 62 360 10.0 13.0 0.00 0.00 0.00 55 1013.9
20260510044534 62 360 10.0 13.0 0.00 0.00 0.00 55 1013.9
20260510044431 62 360 9.0 13.0 0.00 0.00 0.00 55 1013.9
20260510044352 62 360 9.0 14.0 0.00 0.00 0.00 55 1013.8
20260510044227 62 360 9.0 14.0 0.00 0.00 0.00 55 1013.8
20260510044129 62 360 9.0 14.0 0.00 0.00 0.00 55 1013.8
20260510044024 62 360 9.0 14.0 0.00 0.00 0.00 55 1013.8
20260510043921 62 360 9.0 14.0 0.00 0.00 0.00 54 1013.8
20260510043819 62 360 9.0 14.0 0.00 0.00 0.00 54 1013.9
20260510043735 62 360 9.0 14.0 0.00 0.00 0.00 54 1013.8
20260510043636 62 360 10.0 14.0 0.00 0.00 0.00 54 1013.9
20260510043533 62 360 11.0 14.0 0.00 0.00 0.00 54 1013.8
20260510043430 62 360 11.0 14.0 0.00 0.00 0.00 54 1013.9
20260510043334 62 360 10.0 13.0 0.00 0.00 0.00 54 1013.8
20260510043233 62 360 10.0 13.0 0.00 0.00 0.00 54 1013.9
20260510043131 62 360 9.0 13.0 0.00 0.00 0.00 54 1013.9
20260510043046 62 360 9.0 13.0 0.00 0.00 0.00 54 1013.9
20260510042925 62 360 9.0 13.0 0.00 0.00 0.00 54 1013.9
20260510042824 62 360 8.0 13.0 0.00 0.00 0.00 54 1013.9
20260510042742 62 360 8.0 13.0 0.00 0.00 0.00 54 1013.8
20260510042659 62 360 8.0 13.0 0.00 0.00 0.00 54 1013.8
20260510042535 62 360 9.0 13.0 0.00 0.00 0.00 54 1013.8
20260510042415 62 360 10.0 13.0 0.00 0.00 0.00 54 1013.8
20260510042317 62 360 10.0 15.0 0.00 0.00 0.00 54 1013.8
20260510042233 62 360 10.0 15.0 0.00 0.00 0.00 54 1013.7
20260510042130 62 360 10.0 15.0 0.00 0.00 0.00 54 1013.7
20260510042025 62 360 9.0 15.0 0.00 0.00 0.00 54 1013.6
20260510041921 63 360 10.0 15.0 0.00 0.00 0.00 54 1013.6
20260510041840 63 360 10.0 15.0 0.00 0.00 0.00 54 1013.6
20260510041735 63 360 10.0 15.0 0.00 0.00 0.00 54 1013.6
20260510041631 63 360 11.0 15.0 0.00 0.00 0.00 54 1013.5
20260510041530 63 360 11.0 18.0 0.00 0.00 0.00 54 1013.6
20260510041427 63 360 11.0 18.0 0.00 0.00 0.00 54 1013.5
20260510041326 63 360 11.0 19.0 0.00 0.00 0.00 54 1013.5
20260510041243 63 360 11.0 19.0 0.00 0.00 0.00 54 1013.5
20260510041200 63 360 11.0 19.0 0.00 0.00 0.00 54 1013.5
20260510041053 63 360 12.0 21.0 0.00 0.00 0.00 54 1013.5
20260510040930 63 360 11.0 21.0 0.00 0.00 0.00 54 1013.4
20260510040831 63 360 12.0 21.0 0.00 0.00 0.00 54 1013.4
20260510040731 63 360 13.0 21.0 0.00 0.00 0.00 54 1013.4
20260510040627 63 360 14.0 21.0 0.00 0.00 0.00 54 1013.4
20260510040521 63 360 14.0 21.0 0.00 0.00 0.00 54 1013.3
20260510040418 63 360 14.0 21.0 0.00 0.00 0.00 54 1013.2
20260510040319 63 360 14.0 21.0 0.00 0.00 0.00 54 1013.2
20260510040216 63 360 16.0 21.0 0.00 0.00 0.00 54 1013.2
20260510040133 63 360 15.0 21.0 0.00 0.00 0.00 54 1013.3
20260510040028 63 360 14.0 22.0 0.00 0.00 0.00 54 1013.3
20260510035934 63 360 13.0 22.0 0.00 0.00 0.00 54 1013.3
20260510035833 63 360 14.0 22.0 0.00 0.00 0.00 54 1013.2
20260510035729 63 360 14.0 22.0 0.00 0.00 0.00 53 1013.2
20260510035629 63 360 15.0 22.0 0.00 0.00 0.00 53 1013.2
20260510035544 64 360 16.0 22.0 0.00 0.00 0.00 53 1013.2
20260510035422 64 360 16.0 22.0 0.00 0.00 0.00 53 1013.2
20260510035323 64 360 17.0 22.0 0.00 0.00 0.00 53 1013.2
20260510035220 64 360 18.0 22.0 0.00 0.00 0.00 53 1013.2
20260510035117 64 360 17.0 22.0 0.00 0.00 0.00 53 1013.2
20260510035018 64 360 16.0 26.0 0.00 0.00 0.00 53 1013.1
20260510034935 64 360 16.0 26.0 0.00 0.00 0.00 53 1013.1
20260510034833 64 360 16.0 26.0 0.00 0.00 0.00 53 1013.1
20260510034753 64 360 17.0 26.0 0.00 0.00 0.00 53 1013.1
20260510034632 64 360 17.0 28.0 0.00 0.00 0.00 53 1013.1
20260510034528 64 360 16.0 28.0 0.00 0.00 0.00 53 1013.1
20260510034445 64 360 16.0 28.0 0.00 0.00 0.00 53 1013.1
20260510034321 64 360 18.0 28.0 0.00 0.00 0.00 53 1013.0
20260510034223 65 360 19.0 29.0 0.00 0.00 0.00 53 1012.9
20260510034140 65 360 19.0 29.0 0.00 0.00 0.00 52 1012.9
20260510034034 65 360 20.0 29.0 0.00 0.00 0.00 52 1012.9
20260510033931 65 360 19.0 29.0 0.00 0.00 0.00 52 1012.8
20260510033832 65 360 20.0 29.0 0.00 0.00 0.00 52 1012.9
20260510033732 65 360 20.0 29.0 0.00 0.00 0.00 52 1012.8
20260510033630 65 360 21.0 29.0 0.00 0.00 0.00 52 1012.8
20260510033543 65 360 22.0 29.0 0.00 0.00 0.00 52 1012.9
20260510033440 65 360 23.0 29.0 0.00 0.00 0.00 52 1012.8
20260510033321 65 360 22.0 29.0 0.00 0.00 0.00 51 1012.9
20260510033218 65 360 21.0 28.0 0.00 0.00 0.00 51 1012.8
20260510033118 65 360 22.0 28.0 0.00 0.00 0.00 51 1012.7
20260510033032 66 360 21.0 28.0 0.00 0.00 0.00 51 1012.7
20260510032930 66 360 19.0 26.0 0.00 0.00 0.00 50 1012.7
20260510032829 66 360 19.0 26.0 0.00 0.00 0.00 50 1012.7
20260510032729 66 360 19.0 26.0 0.00 0.00 0.00 50 1012.7
20260510032625 66 360 19.0 25.0 0.00 0.00 0.00 50 1012.6
20260510032523 66 360 19.0 25.0 0.00 0.00 0.00 50 1012.7
20260510032440 66 360 19.0 25.0 0.00 0.00 0.00 50 1012.6
20260510032338 66 360 20.0 25.0 0.00 0.00 0.00 49 1012.7
20260510032235 66 360 20.0 25.0 0.00 0.00 0.00 49 1012.6
20260510032133 66 360 19.0 26.0 0.00 0.00 0.00 49 1012.6
20260510032027 66 360 19.0 26.0 0.00 0.00 0.00 49 1012.6
20260510031924 67 360 18.0 26.0 0.00 0.00 0.00 48 1012.6
20260510031824 67 360 17.0 26.0 0.00 0.00 0.00 47 1012.6
20260510031725 67 360 16.0 26.0 0.00 0.00 0.00 47 1012.6
20260510031623 67 360 17.0 28.0 0.00 0.00 0.00 47 1012.6
20260510031520 67 360 17.0 28.0 0.00 0.00 0.00 47 1012.6
20260510031417 67 34 19.0 28.0 0.00 0.00 0.00 46 1012.6
20260510031336 67 22 20.0 28.0 0.00 0.00 0.00 46 1012.6
20260510031231 67 45 21.0 28.0 0.00 0.00 0.00 46 1012.5
20260510031148 68 16 18.0 28.0 0.00 0.00 0.00 45 1012.6
20260510031025 68 49 17.0 28.0 0.00 0.00 0.00 45 1012.6
20260510030926 68 18 17.0 28.0 0.00 0.00 0.00 45 1012.5
20260510030827 68 45 20.0 28.0 0.00 0.00 0.00 45 1012.6
20260510030725 68 38 20.0 28.0 0.00 0.00 0.00 45 1012.6
20260510030621 68 51 18.0 24.0 0.00 0.00 0.00 44 1012.5
20260510030535 68 44 17.0 21.0 0.00 0.00 0.00 44 1012.5
20260510030433 68 36 15.0 25.0 0.00 0.00 0.00 43 1012.5
20260510030352 68 46 14.0 25.0 0.00 0.00 0.00 43 1012.5
20260510030228 68 55 14.0 25.0 0.00 0.00 0.00 43 1012.5
20260510030129 68 41 15.0 27.0 0.00 0.00 0.00 42 1012.4
20260510030023 69 44 14.0 27.0 0.00 0.00 0.00 42 1012.4
20260510025940 69 51 15.0 27.0 0.00 0.00 0.00 42 1012.3
20260510025825 69 44 17.0 27.0 0.00 0.00 0.00 41 1012.2
20260510025743 69 23 18.0 27.0 0.00 0.00 0.00 41 1012.1
20260510025640 69 26 19.0 27.0 0.00 0.00 0.00 41 1012.0
20260510025555 69 24 19.0 27.0 0.00 0.00 0.00 41 1012.0
20260510025431 69 26 19.0 27.0 0.00 0.00 0.00 40 1012.0
20260510025330 70 31 20.0 27.0 0.00 0.00 0.00 40 1011.9
20260510025254 70 40 20.0 27.0 0.00 0.00 0.00 40 1011.9
20260510025150 70 32 20.0 27.0 0.00 0.00 0.00 39 1011.9
20260510025024 70 40 21.0 27.0 0.00 0.00 0.00 39 1011.9
20260510024921 70 23 20.0 27.0 0.00 0.00 0.00 38 1011.8
20260510024819 70 38 20.0 27.0 0.00 0.00 0.00 38 1011.9
20260510024717 70 5 20.0 27.0 0.00 0.00 0.00 37 1011.7
20260510024616 70 41 19.0 27.0 0.00 0.00 0.00 37 1011.8
20260510024530 70 38 18.0 25.0 0.00 0.00 0.00 35 1011.7
20260510024419 70 34 17.0 25.0 0.00 0.00 0.00 35 1011.7
20260510024336 70 26 17.0 25.0 0.00 0.00 0.00 34 1011.7
20260510024233 71 20 17.0 25.0 0.00 0.00 0.00 33 1011.7
20260510024132 71 25 18.0 25.0 0.00 0.00 0.00 33 1011.6
20260510024026 71 32 19.0 25.0 0.00 0.00 0.00 33 1011.6
20260510023923 70 36 18.0 25.0 0.00 0.00 0.00 33 1011.5
20260510023842 70 25 17.0 22.0 0.00 0.00 0.00 33 1011.4
20260510023717 70 32 17.0 22.0 0.00 0.00 0.00 33 1011.4
20260510023640 70 15 17.0 22.0 0.00 0.00 0.00 34 1011.3
20260510023554 70 36 15.0 22.0 0.00 0.00 0.00 34 1011.3
20260510023429 70 34 12.0 17.0 0.00 0.00 0.00 33 1011.3
20260510023349 70 28 12.0 17.0 0.00 0.00 0.00 33 1011.2
20260510023227 70 31 12.0 16.0 0.00 0.00 0.00 33 1011.2
20260510023144 70 19 12.0 16.0 0.00 0.00 0.00 33 1011.2
20260510023018 70 21 12.0 16.0 0.00 0.00 0.00 33 1011.0
20260510022937 70 31 13.0 16.0 0.00 0.00 0.00 33 1011.0
20260510022818 70 28 13.0 16.0 0.00 0.00 0.00 33 1011.1
20260510022722 70 30 13.0 15.0 0.00 0.00 0.00 33 1011.0
20260510022619 69 19 12.0 15.0 0.00 0.00 0.00 33 1011.0
20260510022516 69 21 11.0 14.0 0.00 0.00 0.00 34 1011.0
20260510022434 69 31 11.0 14.0 0.00 0.00 0.00 34 1011.0
20260510022336 69 24 11.0 14.0 0.00 0.00 0.00 34 1010.9
20260510022234 69 27 11.0 14.0 0.00 0.00 0.00 33 1010.9
20260510022131 69 30 11.0 14.0 0.00 0.00 0.00 34 1010.9
20260510022031 69 32 10.0 12.0 0.00 0.00 0.00 34 1011.0
20260510021932 69 24 10.0 12.0 0.00 0.00 0.00 33 1011.0
20260510021833 69 28 10.0 12.0 0.00 0.00 0.00 34 1011.0
20260510021730 69 24 9.0 12.0 0.00 0.00 0.00 33 1011.0
20260510021632 69 35 8.0 12.0 0.00 0.00 0.00 33 1010.9
20260510021525 69 26 8.0 10.0 0.00 0.00 0.00 33 1010.9
20260510021442 69 41 7.0 9.0 0.00 0.00 0.00 33 1010.9
20260510021320 69 38 7.0 9.0 0.00 0.00 0.00 33 1010.9
20260510021219 69 21 7.0 9.0 0.00 0.00 0.00 33 1010.9
20260510021142 69 28 6.0 9.0 0.00 0.00 0.00 32 1010.8
20260510021034 69 27 6.0 10.0 0.00 0.00 0.00 32 1010.8
20260510020931 70 31 6.0 10.0 0.00 0.00 0.00 32 1010.7
20260510020831 70 38 6.0 10.0 0.00 0.00 0.00 32 1010.7
20260510020748 70 34 7.0 10.0 0.00 0.00 0.00 31 1010.7
20260510020645 70 33 7.0 10.0 0.00 0.00 0.00 31 1010.6
20260510020559 70 43 7.0 11.0 0.00 0.00 0.00 31 1010.6
20260510020435 70 43 8.0 11.0 0.00 0.00 0.00 31 1010.6
20260510020335 71 42 8.0 11.0 0.00 0.00 0.00 31 1010.5
20260510020231 71 43 8.0 11.0 0.00 0.00 0.00 31 1010.4
20260510020132 71 29 8.0 11.0 0.00 0.00 0.00 31 1010.4
20260510020051 71 34 8.0 11.0 0.00 0.00 0.00 30 1010.3
20260510020010 71 31 8.0 12.0 0.00 0.00 0.00 30 1010.3
20260510015908 71 21 9.0 12.0 0.00 0.00 0.00 30 1010.3
20260510015716 72 36 9.0 12.0 0.00 0.00 0.00 30 1010.2
20260510015612 72 27 9.0 12.0 0.00 0.00 0.00 30 1010.3
20260510015529 72 28 9.0 12.0 0.00 0.00 0.00 29 1010.1
20260510015427 72 24 9.0 12.0 0.00 0.00 0.00 29 1010.1
20260510015332 72 32 9.0 13.0 0.00 0.00 0.00 29 1010.1
20260510015250 73 29 9.0 13.0 0.00 0.00 0.00 29 1010.1
20260510015129 73 29 9.0 13.0 0.00 0.00 0.00 29 1010.0
20260510015024 73 24 9.0 13.0 0.00 0.00 0.00 29 1010.0
20260510014942 73 26 9.0 14.0 0.00 0.00 0.00 29 1010.0
20260510014823 73 35 10.0 14.0 0.00 0.00 0.00 28 1010.0
20260510014720 73 34 9.0 14.0 0.00 0.00 0.00 28 1009.9
20260510014616 73 36 10.0 14.0 0.00 0.00 0.00 28 1009.9
20260510014521 74 44 10.0 14.0 0.00 0.00 0.00 28 1009.9
20260510014419 74 31 10.0 14.0 0.00 0.00 0.00 28 1009.9
20260510014317 74 33 10.0 14.0 0.00 0.00 0.00 28 1009.9
20260510014235 74 28 10.0 14.0 0.00 0.00 0.00 28 1009.9
20260510014131 74 30 10.0 14.0 0.00 0.00 0.00 28 1009.8
20260510014028 74 25 10.0 14.0 0.00 0.00 0.00 28 1009.9
20260510013929 74 41 10.0 12.0 0.00 0.00 0.00 27 1009.8
20260510013832 74 35 10.0 13.0 0.00 0.00 0.00 27 1009.8
20260510013754 75 29 10.0 13.0 0.00 0.00 0.00 27 1009.8
20260510013631 75 29 9.0 13.0 0.00 0.00 0.00 27 1009.8
20260510013525 75 33 10.0 13.0 0.00 0.00 0.00 27 1009.8
20260510013442 75 25 10.0 14.0 0.00 0.00 0.00 27 1009.8
20260510013321 75 26 10.0 14.0 0.00 0.00 0.00 27 1009.8
20260510013216 75 33 10.0 14.0 0.00 0.00 0.00 26 1009.8
20260510013116 76 25 11.0 14.0 0.00 0.00 0.00 26 1009.7
20260510013035 76 41 11.0 14.0 0.00 0.00 0.00 26 1009.7
20260510012932 76 39 11.0 14.0 0.00 0.00 0.00 26 1009.7
20260510012834 76 25 10.0 14.0 0.00 0.00 0.00 26 1009.7
20260510012751 76 34 10.0 14.0 0.00 0.00 0.00 25 1009.7
20260510012627 76 28 11.0 14.0 0.00 0.00 0.00 25 1009.7
20260510012522 76 20 12.0 14.0 0.00 0.00 0.00 25 1009.6
20260510012420 77 37 11.0 14.0 0.00 0.00 0.00 25 1009.6
20260510012327 77 39 11.0 14.0 0.00 0.00 0.00 25 1009.6
20260510012222 77 32 10.0 14.0 0.00 0.00 0.00 24 1009.6
20260510012139 77 40 10.0 14.0 0.00 0.00 0.00 24 1009.6
20260510012031 77 38 10.0 18.0 0.00 0.00 0.00 24 1009.5
20260510011932 78 26 11.0 18.0 0.00 0.00 0.00 24 1009.5
20260510011832 78 25 11.0 18.0 0.00 0.00 0.00 24 1009.5
20260510011729 78 27 11.0 18.0 0.00 0.00 0.00 24 1009.4
20260510011652 78 46 11.0 18.0 0.00 0.00 0.00 24 1009.4
20260510011526 78 44 11.0 18.0 0.00 0.00 0.00 23 1009.4
20260510011430 79 38 11.0 18.0 0.00 0.00 0.00 23 1009.4
20260510011332 79 42 11.0 18.0 0.00 0.00 0.00 23 1009.4
20260510011230 79 36 13.0 18.0 0.00 0.00 0.00 23 1009.4
20260510011147 79 38 13.0 18.0 0.00 0.00 0.00 23 1009.3
20260510011019 79 26 12.0 18.0 0.00 0.00 0.00 23 1009.3
20260510010916 79 38 12.0 18.0 0.00 0.00 0.00 23 1009.3
20260510010835 79 51 13.0 20.0 0.00 0.00 0.00 23 1009.3
20260510010715 80 21 13.0 20.0 0.00 0.00 0.00 23 1009.2
20260510010635 80 25 13.0 20.0 0.00 0.00 0.00 23 1009.2
20260510010529 80 38 12.0 20.0 0.00 0.00 0.00 23 1009.2
20260510010427 80 42 12.0 20.0 0.00 0.00 0.00 23 1009.1
20260510010328 80 37 13.0 20.0 0.00 0.00 0.00 22 1009.1
20260510010226 80 22 14.0 20.0 0.00 0.00 0.00 22 1009.1
20260510010123 80 24 14.0 20.0 0.00 0.00 0.00 22 1009.1
20260510010038 81 35 14.0 20.0 0.00 0.00 0.00 22 1009.1
20260510005919 81 39 14.0 20.0 0.00 0.00 0.00 21 1009.1
20260510005819 81 36 13.0 20.0 0.00 0.00 0.00 21 1009.1
20260510005716 81 45 13.0 20.0 0.00 0.00 0.00 20 1009.1
20260510005633 81 42 13.0 20.0 0.00 0.00 0.00 20 1009.0
20260510005526 81 26 13.0 20.0 0.00 0.00 0.00 20 1009.1
20260510005447 81 38 13.0 20.0 0.00 0.00 0.00 20 1009.0
20260510005324 81 28 12.0 20.0 0.00 0.00 0.00 20 1009.0
20260510005221 81 38 12.0 20.0 0.00 0.00 0.00 20 1009.0
20260510005122 82 35 13.0 20.0 0.00 0.00 0.00 19 1009.0
20260510005019 82 42 14.0 20.0 0.00 0.00 0.00 19 1008.9
20260510004916 82 29 13.0 19.0 0.00 0.00 0.00 19 1009.0
20260510004835 82 30 13.0 19.0 0.00 0.00 0.00 19 1009.0
20260510004732 82 40 13.0 19.0 0.00 0.00 0.00 18 1009.0
20260510004649 82 33 12.0 19.0 0.00 0.00 0.00 18 1009.0
20260510004523 82 29 11.0 18.0 0.00 0.00 0.00 18 1009.0
20260510004420 82 44 12.0 18.0 0.00 0.00 0.00 17 1009.0
20260510004321 82 32 11.0 18.0 0.00 0.00 0.00 17 1009.0
20260510004218 82 19 11.0 18.0 0.00 0.00 0.00 17 1008.9
20260510004115 82 36 12.0 18.0 0.00 0.00 0.00 17 1008.9
20260510004035 82 33 13.0 18.0 0.00 0.00 0.00 17 1009.0
20260510003931 82 18 13.0 18.0 0.00 0.00 0.00 17 1008.9
20260510003830 82 36 13.0 18.0 0.00 0.00 0.00 17 1008.8
20260510003727 83 19 14.0 18.0 0.00 0.00 0.00 17 1008.8
20260510003644 83 15 14.0 18.0 0.00 0.00 0.00 17 1008.8
20260510003544 83 24 13.0 18.0 0.00 0.00 0.00 17 1008.8
20260510003459 83 11 12.0 17.0 0.00 0.00 0.00 17 1008.8
20260510003356 83 30 11.0 17.0 0.00 0.00 0.00 17 1008.8
20260510003233 83 32 11.0 17.0 0.00 0.00 0.00 17 1008.8
20260510003130 83 27 12.0 17.0 0.00 0.00 0.00 17 1008.7
20260510003027 83 31 12.0 17.0 0.00 0.00 0.00 17 1008.7
20260510002944 83 24 12.0 17.0 0.00 0.00 0.00 17 1008.7
20260510002842 83 5 12.0 17.0 0.00 0.00 0.00 17 1008.7
20260510002718 83 46 13.0 17.0 0.00 0.00 0.00 17 1008.7
20260510002619 83 30 11.0 17.0 0.00 0.00 0.00 17 1008.7
20260510002534 83 27 10.0 17.0 0.00 0.00 0.00 17 1008.7
20260510002451 83 28 10.0 16.0 0.00 0.00 0.00 17 1008.7
20260510002331 83 5 12.0 16.0 0.00 0.00 0.00 17 1008.7
20260510002227 83 21 12.0 16.0 0.00 0.00 0.00 17 1008.7
20260510002126 83 5 12.0 16.0 0.00 0.00 0.00 17 1008.7
20260510002023 83 24 12.0 16.0 0.00 0.00 0.00 17 1008.7
20260510001940 83 5 13.0 16.0 0.00 0.00 0.00 17 1008.7
20260510001822 83 16 12.0 16.0 0.00 0.00 0.00 17 1008.7
20260510001739 83 16 13.0 16.0 0.00 0.00 0.00 17 1008.7
20260510001656 84 15 13.0 16.0 0.00 0.00 0.00 17 1008.7
20260510001553 84 52 13.0 17.0 0.00 0.00 0.00 17 1008.7
20260510001429 84 34 14.0 17.0 0.00 0.00 0.00 17 1008.7
20260510001328 84 38 14.0 19.0 0.00 0.00 0.00 17 1008.7
20260510001226 84 46 13.0 20.0 0.00 0.00 0.00 17 1008.7
20260510001127 84 28 12.0 20.0 0.00 0.00 0.00 17 1008.7
20260510001026 84 42 12.0 20.0 0.00 0.00 0.00 16 1008.7
20260510000943 84 24 12.0 20.0 0.00 0.00 0.00 16 1008.7
20260510000820 84 38 12.0 20.0 0.00 0.00 0.00 16 1008.7
20260510000716 84 38 12.0 20.0 0.00 0.00 0.00 16 1008.7
20260510000633 84 32 13.0 20.0 0.00 0.00 0.00 16 1008.6
20260510000551 84 23 14.0 20.0 0.00 0.00 0.00 16 1008.6
20260510000426 84 17 15.0 20.0 0.00 0.00 0.00 16 1008.6
20260510000326 84 42 13.0 20.0 0.00 0.00 0.00 16 1008.6
20260510000241 84 32 9.0 20.0 0.00 0.00 0.00 16 1008.7
20260510000138 84 25 10.0 20.0 0.00 0.00 0.00 16 1008.6
20260510000034 84 21 11.0 20.0 0.00 0.00 0.00 16 1008.7
20260509235952 84 15 13.0 20.0 0.00 0.00 0.00 16 1008.7
20260509235832 84 34 14.0 20.0 0.00 0.00 0.00 16 1008.7
20260509235728 85 30 15.0 20.0 0.00 0.00 0.00 16 1008.7
20260509235629 85 29 14.0 20.0 0.00 0.00 0.00 16 1008.7
20260509235526 85 28 15.0 20.0 0.00 0.00 0.00 17 1008.7
20260509235424 85 30 14.0 20.0 0.00 0.00 0.00 17 1008.6
20260509235322 85 38 12.0 20.0 0.00 0.00 0.00 16 1008.7
20260509235245 85 47 14.0 20.0 0.00 0.00 0.00 16 1008.7
20260509235122 85 47 14.0 20.0 0.00 0.00 0.00 17 1008.7
20260509235016 85 36 14.0 20.0 0.00 0.00 0.00 17 1008.7
20260509234934 85 37 13.0 20.0 0.00 0.00 0.00 17 1008.8
20260509234832 85 23 13.0 20.0 0.00 0.00 0.00 17 1008.8
20260509234734 85 15 14.0 20.0 0.00 0.00 0.00 17 1008.8
20260509234631 85 38 15.0 20.0 0.00 0.00 0.00 16 1008.8
20260509234528 85 26 15.0 20.0 0.00 0.00 0.00 17 1008.8
20260509234429 85 29 13.0 19.0 0.00 0.00 0.00 17 1008.7
20260509234347 84 31 11.0 19.0 0.00 0.00 0.00 17 1008.7
20260509234228 84 42 11.0 19.0 0.00 0.00 0.00 17 1008.8
20260509234126 84 355 13.0 19.0 0.00 0.00 0.00 17 1008.8
20260509234020 84 9 14.0 19.0 0.00 0.00 0.00 16 1008.7
20260509233938 84 19 14.0 19.0 0.00 0.00 0.00 16 1008.8
20260509233835 84 25 13.0 19.0 0.00 0.00 0.00 17 1008.8
20260509233732 84 17 11.0 17.0 0.00 0.00 0.00 17 1008.8
20260509233629 85 36 10.0 17.0 0.00 0.00 0.00 16 1008.8
20260509233530 85 24 11.0 19.0 0.00 0.00 0.00 16 1008.8
20260509233430 85 46 12.0 19.0 0.00 0.00 0.00 16 1008.8
20260509233329 85 24 11.0 19.0 0.00 0.00 0.00 16 1008.8
20260509233225 85 19 11.0 19.0 0.00 0.00 0.00 17 1008.8
20260509233125 85 50 13.0 20.0 0.00 0.00 0.00 16 1008.8
20260509233019 85 31 12.0 20.0 0.00 0.00 0.00 16 1008.8
20260509232939 85 18 11.0 20.0 0.00 0.00 0.00 17 1008.8
20260509232821 85 30 12.0 20.0 0.00 0.00 0.00 16 1008.8
20260509232742 85 20 15.0 23.0 0.00 0.00 0.00 16 1008.8
20260509232638 85 34 15.0 23.0 0.00 0.00 0.00 16 1008.7
20260509232531 85 26 14.0 23.0 0.00 0.00 0.00 16 1008.7
20260509232432 85 13 14.0 23.0 0.00 0.00 0.00 16 1008.7
20260509232332 85 22 15.0 23.0 0.00 0.00 0.00 17 1008.7
20260509232228 85 28 15.0 23.0 0.00 0.00 0.00 17 1008.7
20260509232132 85 23 16.0 23.0 0.00 0.00 0.00 16 1008.6
20260509232025 85 5 17.0 23.0 0.00 0.00 0.00 16 1008.6
20260509231925 85 350 17.0 23.0 0.00 0.00 0.00 16 1008.6
20260509231827 86 355 16.0 23.0 0.00 0.00 0.00 16 1008.6
20260509231743 86 355 16.0 21.0 0.00 0.00 0.00 16 1008.7
20260509231639 86 355 15.0 20.0 0.00 0.00 0.00 16 1008.7
20260509231553 85 10 13.0 20.0 0.00 0.00 0.00 17 1008.7
20260509231453 85 355 13.0 20.0 0.00 0.00 0.00 16 1008.7
20260509231356 85 348 15.0 20.0 0.00 0.00 0.00 16 1008.7
20260509231232 85 355 16.0 20.0 0.00 0.00 0.00 16 1008.7
20260509231155 85 9 15.0 20.0 0.00 0.00 0.00 16 1008.7
20260509231028 86 16 14.0 20.0 0.00 0.00 0.00 14 1008.7
20260509230945 86 11 11.0 15.0 0.00 0.00 0.00 14 1008.7
20260509230831 86 348 10.0 15.0 0.00 0.00 0.00 14 1008.7
20260509230731 86 5 11.0 15.0 0.00 0.00 0.00 14 1008.7
20260509230628 86 350 11.0 15.0 0.00 0.00 0.00 14 1008.7
20260509230545 86 346 9.0 15.0 0.00 0.00 0.00 14 1008.7
20260509230459 86 355 9.0 15.0 0.00 0.00 0.00 13 1008.7
20260509230356 86 348 9.0 15.0 0.00 0.00 0.00 13 1008.7
20260509230232 87 9 9.0 15.0 0.00 0.00 0.00 14 1008.7
20260509230129 86 5 10.0 17.0 0.00 0.00 0.00 14 1008.7
20260509230027 87 309 11.0 17.0 0.00 0.00 0.00 14 1008.7
20260509225924 86 327 10.0 18.0 0.00 0.00 0.00 14 1008.6
20260509225842 86 339 10.0 19.0 0.00 0.00 0.00 14 1008.6
20260509225737 86 355 10.0 19.0 0.00 0.00 0.00 14 1008.6
20260509225655 86 9 11.0 19.0 0.00 0.00 0.00 14 1008.5
20260509225527 86 15 11.0 19.0 0.00 0.00 0.00 14 1008.6
20260509225423 86 329 11.0 33.0 0.00 0.00 0.00 14 1008.6
20260509225321 86 350 12.0 33.0 0.00 0.00 0.00 14 1008.6
20260509225240 86 355 12.0 33.0 0.00 0.00 0.00 14 1008.6
20260509225119 86 15 14.0 33.0 0.00 0.00 0.00 15 1008.6
20260509225017 86 10 14.0 33.0 0.00 0.00 0.00 15 1008.7
20260509224934 86 11 13.0 33.0 0.00 0.00 0.00 15 1008.6
20260509224855 86 23 12.0 33.0 0.00 0.00 0.00 15 1008.6
20260509224732 86 15 13.0 33.0 0.00 0.00 0.00 15 1008.7
20260509224630 86 5 15.0 33.0 0.00 0.00 0.00 16 1008.7
20260509224527 86 39 13.0 33.0 0.00 0.00 0.00 16 1008.6
20260509224428 86 342 11.0 16.0 0.00 0.00 0.00 16 1008.6
20260509224327 86 350 12.0 16.0 0.00 0.00 0.00 16 1008.6
20260509224229 86 355 11.0 16.0 0.00 0.00 0.00 16 1008.7
20260509224129 86 355 10.0 16.0 0.00 0.00 0.00 15 1008.7
20260509224024 86 360 10.0 16.0 0.00 0.00 0.00 15 1008.7
20260509223922 86 22 9.0 16.0 0.00 0.00 0.00 15 1008.7
20260509223842 86 355 8.0 20.0 0.00 0.00 0.00 16 1008.7
20260509223716 86 333 9.0 23.0 0.00 0.00 0.00 16 1008.7
20260509223633 86 345 10.0 23.0 0.00 0.00 0.00 16 1008.7
20260509223548 86 346 12.0 23.0 0.00 0.00 0.00 15 1008.7
20260509223425 86 355 10.0 23.0 0.00 0.00 0.00 16 1008.7
20260509223328 86 355 8.0 23.0 0.00 0.00 0.00 16 1008.7
20260509223245 86 360 9.0 24.0 0.00 0.00 0.00 16 1008.8
20260509223126 86 5 12.0 24.0 0.00 0.00 0.00 15 1008.8
20260509223019 86 9 14.0 24.0 0.00 0.00 0.00 16 1008.8
20260509222918 86 337 17.0 25.0 0.00 0.00 0.00 16 1008.8
20260509222819 86 334 18.0 25.0 0.00 0.00 0.00 16 1008.8
20260509222716 86 329 17.0 25.0 0.00 0.00 0.00 16 1008.7
20260509222621 86 340 16.0 25.0 0.00 0.00 0.00 16 1008.7
20260509222534 86 340 17.0 25.0 0.00 0.00 0.00 16 1008.7
20260509222430 86 337 18.0 25.0 0.00 0.00 0.00 16 1008.7
20260509222327 86 336 19.0 25.0 0.00 0.00 0.00 16 1008.7
20260509222224 87 348 17.0 25.0 0.00 0.00 0.00 16 1008.6
20260509222122 87 360 17.0 25.0 0.00 0.00 0.00 16 1008.6
20260509222017 87 355 18.0 25.0 0.00 0.00 0.00 15 1008.7
20260509221913 87 346 18.0 25.0 0.00 0.00 0.00 15 1008.7
20260509221820 87 360 18.0 24.0 0.00 0.00 0.00 15 1008.6
20260509221735 87 347 18.0 24.0 0.00 0.00 0.00 15 1008.5
20260509221632 87 5 15.0 24.0 0.00 0.00 0.00 16 1008.5
20260509221545 87 343 15.0 24.0 0.00 0.00 0.00 16 1008.5
20260509221427 87 331 17.0 24.0 0.00 0.00 0.00 16 1008.5
20260509221325 87 330 16.0 21.0 0.00 0.00 0.00 16 1008.5
20260509221221 87 9 14.0 19.0 0.00 0.00 0.00 16 1008.5
20260509221138 87 10 13.0 19.0 0.00 0.00 0.00 16 1008.5
20260509221034 87 345 12.0 19.0 0.00 0.00 0.00 16 1008.5
20260509220951 87 5 13.0 19.0 0.00 0.00 0.00 16 1008.6
20260509220850 87 13 15.0 19.0 0.00 0.00 0.00 16 1008.6
20260509220733 87 5 13.0 21.0 0.00 0.00 0.00 16 1008.5
20260509220634 87 351 13.0 21.0 0.00 0.00 0.00 15 1008.6
20260509220528 87 360 14.0 22.0 0.00 0.00 0.00 15 1008.6
20260509220429 87 16 14.0 22.0 0.00 0.00 0.00 16 1008.5
20260509220332 87 14 14.0 22.0 0.00 0.00 0.00 15 1008.6
20260509220229 87 15 13.0 26.0 0.00 0.00 0.00 16 1008.6
20260509220150 87 11 13.0 26.0 0.00 0.00 0.00 15 1008.6
20260509220025 87 347 14.0 26.0 0.00 0.00 0.00 15 1008.6
20260509215928 87 355 15.0 26.0 0.00 0.00 0.00 15 1008.7
20260509215846 87 344 16.0 26.0 0.00 0.00 0.00 15 1008.7
20260509215724 87 348 17.0 26.0 0.00 0.00 0.00 15 1008.7
20260509215621 87 330 18.0 26.0 0.00 0.00 0.00 15 1008.7
20260509215535 87 334 18.0 26.0 0.00 0.00 0.00 15 1008.7
20260509215434 87 343 19.0 26.0 0.00 0.00 0.00 16 1008.6
20260509215314 87 338 18.0 26.0 0.00 0.00 0.00 16 1008.7
20260509215217 87 342 16.0 23.0 0.00 0.00 0.00 16 1008.7
20260509215134 87 340 15.0 23.0 0.00 0.00 0.00 16 1008.7
20260509215030 87 334 15.0 21.0 0.00 0.00 0.00 15 1008.7
20260509214927 87 319 12.0 23.0 0.00 0.00 0.00 15 1008.7
20260509214827 87 330 13.0 23.0 0.00 0.00 0.00 15 1008.7
20260509214724 87 330 14.0 23.0 0.00 0.00 0.00 15 1008.7
20260509214622 87 333 15.0 23.0 0.00 0.00 0.00 15 1008.7
20260509214520 87 302 16.0 23.0 0.00 0.00 0.00 15 1008.8
20260509214417 87 317 14.0 23.0 0.00 0.00 0.00 15 1008.7
20260509214336 87 328 12.0 23.0 0.00 0.00 0.00 15 1008.7
20260509214253 87 348 13.0 23.0 0.00 0.00 0.00 15 1008.7
20260509214130 87 360 16.0 23.0 0.00 0.00 0.00 15 1008.7
20260509214024 87 340 14.0 23.0 0.00 0.00 0.00 15 1008.7
20260509213922 87 300 12.0 21.0 0.00 0.00 0.00 15 1008.7
20260509213822 87 344 13.0 21.0 0.00 0.00 0.00 15 1008.8
20260509213721 87 12 16.0 21.0 0.00 0.00 0.00 15 1008.8
20260509213617 87 348 16.0 21.0 0.00 0.00 0.00 16 1008.8
20260509213534 87 320 14.0 21.0 0.00 0.00 0.00 16 1008.7
20260509213431 87 324 12.0 20.0 0.00 0.00 0.00 16 1008.8
20260509213349 87 5 12.0 20.0 0.00 0.00 0.00 16 1008.8
20260509213306 87 330 11.0 20.0 0.00 0.00 0.00 16 1008.8
20260509213202 87 327 12.0 20.0 0.00 0.00 0.00 16 1008.8
20260509213055 87 339 12.0 20.0 0.00 0.00 0.00 16 1008.8
20260509212930 87 348 12.0 20.0 0.00 0.00 0.00 16 1008.8
20260509212852 87 290 15.0 20.0 0.00 0.00 0.00 16 1008.8
20260509212716 87 327 15.0 20.0 0.00 0.00 0.00 16 1008.8
20260509212633 87 331 14.0 20.0 0.00 0.00 0.00 17 1008.8
20260509212528 86 334 13.0 19.0 0.00 0.00 0.00 17 1008.8
20260509212425 86 349 12.0 19.0 0.00 0.00 0.00 18 1008.8
20260509212323 86 325 11.0 19.0 0.00 0.00 0.00 17 1008.8
20260509212221 86 315 12.0 19.0 0.00 0.00 0.00 16 1008.9
20260509212118 86 301 14.0 19.0 0.00 0.00 0.00 18 1009.0
20260509212031 86 341 13.0 19.0 0.00 0.00 0.00 17 1008.9
20260509211932 86 327 13.0 19.0 0.00 0.00 0.00 16 1008.9
20260509211832 86 301 11.0 19.0 0.00 0.00 0.00 16 1008.9
20260509211749 86 315 12.0 19.0 0.00 0.00 0.00 16 1008.9
20260509211625 87 301 11.0 19.0 0.00 0.00 0.00 16 1008.9
20260509211539 87 312 11.0 19.0 0.00 0.00 0.00 17 1009.0
20260509211456 87 355 11.0 19.0 0.00 0.00 0.00 17 1008.9
20260509211335 87 340 12.0 19.0 0.00 0.00 0.00 16 1009.0
20260509211254 87 360 14.0 19.0 0.00 0.00 0.00 17 1009.0
20260509211130 87 314 15.0 20.0 0.00 0.00 0.00 17 1009.0
20260509211022 87 336 12.0 20.0 0.00 0.00 0.00 17 1009.0
20260509210924 87 319 9.0 20.0 0.00 0.00 0.00 17 1009.0
20260509210823 87 310 10.0 20.0 0.00 0.00 0.00 17 1009.0
20260509210722 87 331 11.0 20.0 0.00 0.00 0.00 17 1009.1
20260509210618 87 341 12.0 20.0 0.00 0.00 0.00 17 1009.0
20260509210516 87 293 11.0 20.0 0.00 0.00 0.00 17 1009.1
20260509210413 87 315 12.0 20.0 0.00 0.00 0.00 17 1009.1
20260509210334 87 326 14.0 20.0 0.00 0.00 0.00 17 1009.1
20260509210234 87 271 14.0 21.0 0.00 0.00 0.00 16 1009.1
20260509210133 87 286 12.0 21.0 0.00 0.00 0.00 17 1009.0
20260509210025 87 337 10.0 21.0 0.00 0.00 0.00 18 1009.1
20260509205922 87 329 10.0 21.0 0.00 0.00 0.00 17 1009.1
20260509205821 87 351 10.0 21.0 0.00 0.00 0.00 18 1009.1
20260509205720 86 321 11.0 21.0 0.00 0.00 0.00 18 1009.1
20260509205617 86 327 13.0 21.0 0.00 0.00 0.00 17 1009.1
20260509205531 86 5 15.0 21.0 0.00 0.00 0.00 17 1009.1
20260509205435 86 337 17.0 21.0 0.00 0.00 0.00 17 1009.1
20260509205335 86 330 14.0 21.0 0.00 0.00 0.00 17 1009.0
20260509205232 86 348 9.0 21.0 0.00 0.00 0.00 17 1009.1
20260509205128 87 307 10.0 21.0 0.00 0.00 0.00 17 1009.1
20260509205042 87 341 12.0 21.0 0.00 0.00 0.00 17 1009.1
20260509204939 87 347 12.0 21.0 0.00 0.00 0.00 17 1009.2
20260509204836 87 321 11.0 21.0 0.00 0.00 0.00 18 1009.3
20260509204733 87 325 13.0 21.0 0.00 0.00 0.00 17 1009.3
20260509204650 87 328 15.0 21.0 0.00 0.00 0.00 17 1009.2
20260509204543 87 330 17.0 21.0 0.00 0.00 0.00 17 1009.2
20260509204423 87 331 14.0 24.0 0.00 0.00 0.00 18 1009.1
20260509204325 86 325 9.0 24.0 0.00 0.00 0.00 18 1009.1
20260509204241 86 338 9.0 24.0 0.00 0.00 0.00 17 1009.2
20260509204159 86 335 10.0 24.0 0.00 0.00 0.00 17 1009.3
20260509204031 86 321 14.0 24.0 0.00 0.00 0.00 17 1009.2
20260509203928 87 328 15.0 24.0 0.00 0.00 0.00 17 1009.2
20260509203826 87 355 14.0 24.0 0.00 0.00 0.00 18 1009.2
20260509203723 87 345 16.0 24.0 0.00 0.00 0.00 18 1009.2
20260509203625 86 5 18.0 24.0 0.00 0.00 0.00 17 1009.2
20260509203520 87 5 17.0 26.0 0.00 0.00 0.00 17 1009.2
20260509203416 86 11 14.0 26.0 0.00 0.00 0.00 18 1009.2
20260509203316 86 342 16.0 26.0 0.00 0.00 0.00 18 1009.2
20260509203232 86 348 16.0 26.0 0.00 0.00 0.00 18 1009.2
20260509203135 86 355 15.0 26.0 0.00 0.00 0.00 18 1009.2
20260509203028 86 336 16.0 26.0 0.00 0.00 0.00 18 1009.3
20260509202925 86 334 17.0 26.0 0.00 0.00 0.00 18 1009.4
20260509202845 86 344 14.0 26.0 0.00 0.00 0.00 18 1009.2
20260509202724 86 14 14.0 26.0 0.00 0.00 0.00 18 1009.4
20260509202644 86 350 14.0 26.0 0.00 0.00 0.00 18 1009.4
20260509202601 86 346 13.0 26.0 0.00 0.00 0.00 18 1009.4
20260509202436 86 286 11.0 22.0 0.00 0.00 0.00 18 1009.5
20260509202355 86 360 14.0 22.0 0.00 0.00 0.00 18 1009.4
20260509202230 86 355 13.0 22.0 0.00 0.00 0.00 18 1009.4
20260509202130 86 331 11.0 22.0 0.00 0.00 0.00 18 1009.4
20260509202023 86 355 13.0 22.0 0.00 0.00 0.00 18 1009.4
20260509201940 87 329 16.0 22.0 0.00 0.00 0.00 18 1009.4
20260509201821 86 327 15.0 22.0 0.00 0.00 0.00 19 1009.4
20260509201740 86 343 12.0 22.0 0.00 0.00 0.00 19 1009.3
20260509201620 86 336 12.0 22.0 0.00 0.00 0.00 18 1009.4
20260509201534 86 329 14.0 22.0 0.00 0.00 0.00 18 1009.4
20260509201452 86 312 16.0 22.0 0.00 0.00 0.00 18 1009.4
20260509201350 86 319 17.0 22.0 0.00 0.00 0.00 18 1009.4
20260509201226 87 325 18.0 22.0 0.00 0.00 0.00 19 1009.3
20260509201123 87 315 18.0 22.0 0.00 0.00 0.00 19 1009.3
20260509201020 87 334 17.0 22.0 0.00 0.00 0.00 18 1009.3
20260509200925 87 13 17.0 21.0 0.00 0.00 0.00 18 1009.4
20260509200826 87 351 17.0 21.0 0.00 0.00 0.00 19 1009.4
20260509200724 87 340 16.0 21.0 0.00 0.00 0.00 18 1009.4
20260509200641 86 322 15.0 19.0 0.00 0.00 0.00 18 1009.4
20260509200533 86 321 13.0 23.0 0.00 0.00 0.00 19 1009.4
20260509200432 86 345 11.0 23.0 0.00 0.00 0.00 18 1009.4
20260509200330 86 337 9.0 23.0 0.00 0.00 0.00 18 1009.4
20260509200226 86 302 9.0 23.0 0.00 0.00 0.00 17 1009.4
20260509200142 86 300 11.0 23.0 0.00 0.00 0.00 17 1009.4
20260509200023 86 305 13.0 23.0 0.00 0.00 0.00 17 1009.5
20260509195943 86 317 13.0 23.0 0.00 0.00 0.00 18 1009.5
20260509195841 86 327 15.0 23.0 0.00 0.00 0.00 18 1009.4
20260509195735 86 327 15.0 23.0 0.00 0.00 0.00 18 1009.4
20260509195632 86 340 14.0 23.0 0.00 0.00 0.00 18 1009.4
20260509195526 87 327 12.0 19.0 0.00 0.00 0.00 18 1009.5
20260509195423 87 328 13.0 19.0 0.00 0.00 0.00 18 1009.4
20260509195344 87 5 15.0 22.0 0.00 0.00 0.00 18 1009.4
20260509195224 87 360 15.0 22.0 0.00 0.00 0.00 18 1009.4
20260509195142 86 339 15.0 22.0 0.00 0.00 0.00 18 1009.4
20260509195035 86 335 12.0 22.0 0.00 0.00 0.00 19 1009.4
20260509194951 86 338 11.0 22.0 0.00 0.00 0.00 19 1009.4
20260509194830 86 340 10.0 22.0 0.00 0.00 0.00 19 1009.4
20260509194727 86 338 11.0 22.0 0.00 0.00 0.00 19 1009.4
20260509194623 86 10 12.0 22.0 0.00 0.00 0.00 18 1009.5
20260509194517 86 339 15.0 22.0 0.00 0.00 0.00 19 1009.5
20260509194434 86 320 17.0 22.0 0.00 0.00 0.00 19 1009.5
20260509194355 86 326 13.0 22.0 0.00 0.00 0.00 19 1009.4
20260509194217 87 355 9.0 20.0 0.00 0.00 0.00 18 1009.5
20260509194114 87 323 11.0 20.0 0.00 0.00 0.00 18 1009.4
20260509194030 87 346 14.0 20.0 0.00 0.00 0.00 18 1009.4
20260509193933 87 325 15.0 20.0 0.00 0.00 0.00 19 1009.4
20260509193854 87 350 16.0 20.0 0.00 0.00 0.00 18 1009.4
20260509193730 87 355 14.0 20.0 0.00 0.00 0.00 18 1009.4
20260509193627 86 5 13.0 20.0 0.00 0.00 0.00 18 1009.4
20260509193525 87 336 14.0 20.0 0.00 0.00 0.00 19 1009.4
20260509193422 87 316 14.0 20.0 0.00 0.00 0.00 19 1009.5
20260509193322 87 327 15.0 20.0 0.00 0.00 0.00 19 1009.5
20260509193218 87 350 15.0 20.0 0.00 0.00 0.00 19 1009.4
20260509193115 87 328 15.0 20.0 0.00 0.00 0.00 19 1009.5
20260509193035 86 327 15.0 20.0 0.00 0.00 0.00 19 1009.4
20260509192932 86 331 12.0 19.0 0.00 0.00 0.00 19 1009.5
20260509192829 86 295 11.0 19.0 0.00 0.00 0.00 19 1009.5
20260509192732 86 309 13.0 18.0 0.00 0.00 0.00 19 1009.5
20260509192635 86 310 12.0 18.0 0.00 0.00 0.00 19 1009.5
20260509192549 86 296 11.0 18.0 0.00 0.00 0.00 19 1009.5
20260509192449 86 294 12.0 18.0 0.00 0.00 0.00 19 1009.5
20260509192330 86 305 13.0 18.0 0.00 0.00 0.00 19 1009.4
20260509192225 86 320 12.0 18.0 0.00 0.00 0.00 20 1009.5
20260509192125 86 294 12.0 18.0 0.00 0.00 0.00 20 1009.5
20260509192022 86 344 11.0 18.0 0.00 0.00 0.00 20 1009.5
20260509191923 86 331 12.0 18.0 0.00 0.00 0.00 20 1009.6
20260509191823 86 355 13.0 18.0 0.00 0.00 0.00 20 1009.6
20260509191722 86 331 13.0 18.0 0.00 0.00 0.00 20 1009.6
20260509191620 86 360 12.0 18.0 0.00 0.00 0.00 20 1009.6
20260509191534 86 330 10.0 18.0 0.00 0.00 0.00 20 1009.6
20260509191433 85 270 10.0 18.0 0.00 0.00 0.00 19 1009.6
20260509191330 86 292 12.0 18.0 0.00 0.00 0.00 19 1009.7
20260509191231 86 303 13.0 18.0 0.00 0.00 0.00 19 1009.7
20260509191128 86 313 13.0 18.0 0.00 0.00 0.00 19 1009.6
20260509191041 86 287 12.0 18.0 0.00 0.00 0.00 20 1009.6
20260509190921 86 306 9.0 18.0 0.00 0.00 0.00 20 1009.6
20260509190818 86 338 10.0 19.0 0.00 0.00 0.00 20 1009.6
20260509190738 86 327 11.0 19.0 0.00 0.00 0.00 19 1009.6
20260509190633 86 292 12.0 19.0 0.00 0.00 0.00 20 1009.6
20260509190549 86 315 12.0 20.0 0.00 0.00 0.00 20 1009.6
20260509190425 86 342 11.0 20.0 0.00 0.00 0.00 20 1009.7
20260509190330 86 319 10.0 20.0 0.00 0.00 0.00 20 1009.7
20260509190227 86 292 11.0 21.0 0.00 0.00 0.00 20 1009.6
20260509190125 86 296 12.0 21.0 0.00 0.00 0.00 20 1009.6
20260509190022 86 317 14.0 21.0 0.00 0.00 0.00 21 1009.6
20260509185919 86 309 15.0 21.0 0.00 0.00 0.00 20 1009.7
20260509185818 86 334 13.0 23.0 0.00 0.00 0.00 21 1009.6
20260509185717 86 341 14.0 23.0 0.00 0.00 0.00 20 1009.6
20260509185635 86 355 15.0 23.0 0.00 0.00 0.00 20 1009.7
20260509185533 86 328 15.0 23.0 0.00 0.00 0.00 21 1009.6
20260509185430 85 335 15.0 23.0 0.00 0.00 0.00 21 1009.6
20260509185332 85 344 15.0 23.0 0.00 0.00 0.00 20 1009.6
20260509185227 85 337 15.0 23.0 0.00 0.00 0.00 21 1009.6
20260509185125 86 5 15.0 23.0 0.00 0.00 0.00 20 1009.7
20260509185019 86 338 17.0 23.0 0.00 0.00 0.00 20 1009.7
20260509184922 86 348 16.0 23.0 0.00 0.00 0.00 21 1009.6
20260509184823 86 327 14.0 23.0 0.00 0.00 0.00 21 1009.7
20260509184719 86 329 12.0 22.0 0.00 0.00 0.00 20 1009.7
20260509184616 86 338 14.0 22.0 0.00 0.00 0.00 21 1009.7
20260509184530 85 355 15.0 22.0 0.00 0.00 0.00 21 1009.7
20260509184447 85 321 16.0 22.0 0.00 0.00 0.00 22 1009.7
20260509184326 85 338 16.0 22.0 0.00 0.00 0.00 22 1009.7
20260509184223 85 346 16.0 22.0 0.00 0.00 0.00 22 1009.7
20260509184123 84 342 16.0 22.0 0.00 0.00 0.00 22 1009.8
20260509184024 85 328 16.0 22.0 0.00 0.00 0.00 22 1009.8
20260509183920 85 328 15.0 20.0 0.00 0.00 0.00 21 1009.8
20260509183838 85 310 16.0 20.0 0.00 0.00 0.00 22 1009.7
20260509183715 84 329 15.0 20.0 0.00 0.00 0.00 21 1009.8
20260509183635 84 333 13.0 20.0 0.00 0.00 0.00 21 1009.8
20260509183549 85 271 10.0 20.0 0.00 0.00 0.00 21 1009.8
20260509183425 85 279 10.0 20.0 0.00 0.00 0.00 21 1009.7
20260509183327 85 293 12.0 20.0 0.00 0.00 0.00 21 1009.8
20260509183223 86 277 12.0 20.0 0.00 0.00 0.00 20 1009.8
20260509183124 86 277 13.0 20.0 0.00 0.00 0.00 20 1009.7
20260509183037 86 269 13.0 20.0 0.00 0.00 0.00 21 1009.7
20260509182933 86 233 11.0 20.0 0.00 0.00 0.00 21 1009.7
20260509182850 86 240 7.0 17.0 0.00 0.00 0.00 21 1009.8
20260509182732 85 242 7.0 17.0 0.00 0.00 0.00 21 1009.7
20260509182628 85 242 8.0 17.0 0.00 0.00 0.00 21 1009.8
20260509182525 85 236 9.0 17.0 0.00 0.00 0.00 21 1009.8
20260509182422 85 304 8.0 17.0 0.00 0.00 0.00 21 1009.8
20260509182327 85 257 6.0 16.0 0.00 0.00 0.00 21 1009.9
20260509182226 85 277 7.0 16.0 0.00 0.00 0.00 21 1009.9
20260509182122 85 274 8.0 16.0 0.00 0.00 0.00 21 1009.9
20260509182036 85 294 8.0 16.0 0.00 0.00 0.00 21 1009.9
20260509181932 85 290 8.0 16.0 0.00 0.00 0.00 21 1009.9
20260509181834 85 289 8.0 16.0 0.00 0.00 0.00 21 1010.0
20260509181732 85 248 10.0 19.0 0.00 0.00 0.00 21 1010.1
20260509181649 85 260 10.0 19.0 0.00 0.00 0.00 21 1010.0
20260509181522 85 258 7.0 19.0 0.00 0.00 0.00 22 1010.1
20260509181430 85 245 5.0 23.0 0.00 0.00 0.00 21 1010.0
20260509181327 85 259 5.0 23.0 0.00 0.00 0.00 22 1010.1
20260509181230 85 269 5.0 23.0 0.00 0.00 0.00 22 1010.1
20260509181126 85 257 7.0 23.0 0.00 0.00 0.00 22 1010.1
20260509181040 85 232 10.0 23.0 0.00 0.00 0.00 22 1010.1
20260509180919 85 235 12.0 23.0 0.00 0.00 0.00 22 1010.3
20260509180841 85 222 12.0 23.0 0.00 0.00 0.00 21 1010.5
20260509180733 85 221 13.0 23.0 0.00 0.00 0.00 21 1010.2
20260509180617 85 267 16.0 23.0 0.00 0.00 0.00 22 1010.2
20260509180531 85 258 16.0 23.0 0.00 0.00 0.00 22 1010.3
20260509180427 85 263 13.0 23.0 0.00 0.00 0.00 21 1010.2
20260509180328 85 247 7.0 19.0 0.00 0.00 0.00 22 1010.3
20260509180227 85 248 7.0 19.0 0.00 0.00 0.00 22 1010.3
20260509180124 86 271 9.0 19.0 0.00 0.00 0.00 22 1010.3
20260509180037 86 243 10.0 23.0 0.00 0.00 0.00 22 1010.3
20260509175933 86 236 12.0 23.0 0.00 0.00 0.00 21 1010.4
20260509175851 86 254 15.0 24.0 0.00 0.00 0.00 22 1010.4
20260509175730 86 240 13.0 24.0 0.00 0.00 0.00 22 1010.4
20260509175631 85 250 10.0 24.0 0.00 0.00 0.00 24 1010.4
20260509175523 85 254 10.0 24.0 0.00 0.00 0.00 23 1010.5
20260509175441 84 257 9.0 24.0 0.00 0.00 0.00 23 1010.5
20260509175341 84 226 11.0 24.0 0.00 0.00 0.00 22 1010.5
20260509175220 84 244 15.0 24.0 0.00 0.00 0.00 23 1010.6
20260509175137 84 244 14.0 24.0 0.00 0.00 0.00 23 1010.6
20260509175030 84 227 14.0 24.0 0.00 0.00 0.00 23 1010.6
20260509174953 84 240 14.0 24.0 0.00 0.00 0.00 23 1010.6
20260509174851 84 235 13.0 23.0 0.00 0.00 0.00 24 1010.6
20260509174732 84 190 13.0 23.0 0.00 0.00 0.00 24 1010.6
20260509174629 84 221 14.0 23.0 0.00 0.00 0.00 24 1010.6
20260509174523 84 259 16.0 23.0 0.00 0.00 0.00 24 1010.5
20260509174420 84 226 17.0 24.0 0.00 0.00 0.00 24 1010.7
20260509174321 84 246 15.0 24.0 0.00 0.00 0.00 24 1010.6
20260509174237 83 258 12.0 24.0 0.00 0.00 0.00 24 1010.6
20260509174116 83 239 11.0 24.0 0.00 0.00 0.00 24 1010.7
20260509174013 83 215 12.0 24.0 0.00 0.00 0.00 24 1010.7
20260509173916 83 254 13.0 24.0 0.00 0.00 0.00 24 1010.8
20260509173815 83 254 16.0 24.0 0.00 0.00 0.00 24 1010.7
20260509173735 83 250 18.0 24.0 0.00 0.00 0.00 24 1010.8
20260509173631 83 238 17.0 24.0 0.00 0.00 0.00 25 1010.8
20260509173528 83 235 16.0 24.0 0.00 0.00 0.00 25 1010.9
20260509173425 83 211 17.0 23.0 0.00 0.00 0.00 25 1010.9
20260509173328 83 211 18.0 23.0 0.00 0.00 0.00 25 1010.9
20260509173227 83 228 18.0 27.0 0.00 0.00 0.00 25 1010.9
20260509173144 83 219 17.0 27.0 0.00 0.00 0.00 25 1010.9
20260509173037 83 227 18.0 27.0 0.00 0.00 0.00 24 1011.0
20260509172919 83 214 19.0 27.0 0.00 0.00 0.00 25 1011.1
20260509172817 83 233 18.0 27.0 0.00 0.00 0.00 25 1011.0
20260509172735 83 230 18.0 27.0 0.00 0.00 0.00 25 1011.0
20260509172631 82 246 19.0 27.0 0.00 0.00 0.00 25 1010.9
20260509172527 82 222 20.0 27.0 0.00 0.00 0.00 25 1011.0
20260509172427 82 217 21.0 27.0 0.00 0.00 0.00 25 1010.9
20260509172325 82 187 20.0 27.0 0.00 0.00 0.00 25 1011.0
20260509172224 82 223 18.0 27.0 0.00 0.00 0.00 26 1010.9
20260509172122 82 227 19.0 27.0 0.00 0.00 0.00 25 1011.0
20260509172035 82 224 20.0 27.0 0.00 0.00 0.00 25 1011.1
20260509171934 82 230 19.0 27.0 0.00 0.00 0.00 25 1011.0
20260509171831 82 247 19.0 27.0 0.00 0.00 0.00 26 1011.0
20260509171727 82 227 19.0 28.0 0.00 0.00 0.00 26 1011.2
20260509171630 82 215 18.0 28.0 0.00 0.00 0.00 26 1011.1
20260509171524 82 205 16.0 28.0 0.00 0.00 0.00 26 1011.2
20260509171422 82 236 18.0 28.0 0.00 0.00 0.00 26 1011.2
20260509171325 82 234 19.0 28.0 0.00 0.00 0.00 25 1011.2
20260509171243 82 234 20.0 28.0 0.00 0.00 0.00 26 1011.1
20260509171200 82 234 19.0 28.0 0.00 0.00 0.00 26 1011.3
20260509171031 81 236 19.0 28.0 0.00 0.00 0.00 26 1011.2
20260509170928 81 236 20.0 28.0 0.00 0.00 0.00 25 1011.2
20260509170828 82 234 20.0 28.0 0.00 0.00 0.00 26 1011.2
20260509170728 81 252 18.0 27.0 0.00 0.00 0.00 26 1011.2
20260509170625 81 213 21.0 27.0 0.00 0.00 0.00 26 1011.3
20260509170522 81 232 21.0 28.0 0.00 0.00 0.00 26 1011.3
20260509170419 81 238 22.0 28.0 0.00 0.00 0.00 26 1011.3
20260509170340 81 223 20.0 27.0 0.00 0.00 0.00 26 1011.3
20260509170259 81 234 19.0 29.0 0.00 0.00 0.00 27 1011.3
20260509170134 81 222 20.0 29.0 0.00 0.00 0.00 27 1011.3
20260509170048 81 214 22.0 29.0 0.00 0.00 0.00 27 1011.3
20260509165928 81 202 22.0 29.0 0.00 0.00 0.00 27 1011.3
20260509165825 81 221 21.0 30.0 0.00 0.00 0.00 27 1011.3
20260509165722 81 209 21.0 30.0 0.00 0.00 0.00 27 1011.4
20260509165619 81 203 19.0 30.0 0.00 0.00 0.00 27 1011.6
20260509165533 81 208 20.0 30.0 0.00 0.00 0.00 27 1011.4
20260509165429 81 191 20.0 30.0 0.00 0.00 0.00 27 1011.6
20260509165328 81 222 21.0 30.0 0.00 0.00 0.00 27 1011.4
20260509165229 81 215 21.0 30.0 0.00 0.00 0.00 27 1011.4
20260509165132 81 229 21.0 30.0 0.00 0.00 0.00 27 1011.3
20260509165045 80 215 24.0 30.0 0.00 0.00 0.00 27 1011.5
20260509164921 80 223 23.0 30.0 0.00 0.00 0.00 27 1011.4
20260509164840 80 203 22.0 30.0 0.00 0.00 0.00 27 1011.4
20260509164734 80 217 22.0 30.0 0.00 0.00 0.00 27 1011.4
20260509164633 80 220 23.0 30.0 0.00 0.00 0.00 27 1011.5
20260509164526 80 230 23.0 31.0 0.00 0.00 0.00 28 1011.4
20260509164428 80 214 23.0 31.0 0.00 0.00 0.00 28 1011.5
20260509164329 80 219 22.0 31.0 0.00 0.00 0.00 28 1011.4
20260509164227 80 232 23.0 32.0 0.00 0.00 0.00 28 1011.4
20260509164127 80 223 23.0 32.0 0.00 0.00 0.00 28 1011.5
20260509164020 80 228 23.0 32.0 0.00 0.00 0.00 28 1011.3
20260509163916 80 225 22.0 32.0 0.00 0.00 0.00 28 1011.6
20260509163816 79 218 21.0 32.0 0.00 0.00 0.00 28 1011.5
20260509163712 79 232 23.0 32.0 0.00 0.00 0.00 28 1011.6
20260509163632 79 220 24.0 32.0 0.00 0.00 0.00 28 1011.6
20260509163533 79 199 26.0 31.0 0.00 0.00 0.00 28 1011.6
20260509163430 79 210 27.0 31.0 0.00 0.00 0.00 28 1011.6
20260509163328 79 203 25.0 31.0 0.00 0.00 0.00 28 1011.6
20260509163224 79 236 23.0 31.0 0.00 0.00 0.00 28 1011.4
20260509163124 79 232 22.0 31.0 0.00 0.00 0.00 28 1011.5
20260509163018 79 232 21.0 31.0 0.00 0.00 0.00 28 1011.5
20260509162938 79 214 21.0 33.0 0.00 0.00 0.00 29 1011.6
20260509162819 79 213 23.0 33.0 0.00 0.00 0.00 29 1011.6
20260509162735 79 233 24.0 33.0 0.00 0.00 0.00 29 1011.6
20260509162630 79 225 25.0 33.0 0.00 0.00 0.00 29 1011.6
20260509162549 78 223 23.0 33.0 0.00 0.00 0.00 29 1011.7
20260509162442 78 209 24.0 33.0 0.00 0.00 0.00 29 1011.7
20260509162340 78 216 24.0 33.0 0.00 0.00 0.00 29 1011.6
20260509162235 78 213 23.0 33.0 0.00 0.00 0.00 29 1011.8
20260509162131 78 199 25.0 33.0 0.00 0.00 0.00 29 1011.6
20260509162025 78 227 26.0 33.0 0.00 0.00 0.00 29 1011.6
20260509161926 78 206 25.0 33.0 0.00 0.00 0.00 29 1011.6
20260509161851 78 206 23.0 30.0 0.00 0.00 0.00 29 1011.6
20260509161746 78 204 23.0 30.0 0.00 0.00 0.00 30 1011.6
20260509161645 78 225 24.0 30.0 0.00 0.00 0.00 30 1011.6
20260509161559 78 207 25.0 30.0 0.00 0.00 0.00 29 1011.6
20260509161455 78 215 25.0 34.0 0.00 0.00 0.00 30 1011.7
20260509161351 78 205 24.0 34.0 0.00 0.00 0.00 30 1011.7
20260509161254 78 212 23.0 34.0 0.00 0.00 0.00 30 1011.9
20260509161133 78 215 23.0 34.0 0.00 0.00 0.00 30 1011.6
20260509161027 78 200 22.0 34.0 0.00 0.00 0.00 30 1011.6
20260509160925 77 217 23.0 34.0 0.00 0.00 0.00 30 1011.7
20260509160844 77 207 25.0 34.0 0.00 0.00 0.00 30 1011.7
20260509160723 77 211 25.0 34.0 0.00 0.00 0.00 30 1011.9
20260509160620 77 206 24.0 34.0 0.00 0.00 0.00 30 1011.6
20260509160534 77 212 25.0 34.0 0.00 0.00 0.00 30 1011.7
20260509160431 77 182 25.0 32.0 0.00 0.00 0.00 29 1011.7
20260509160329 77 232 26.0 32.0 0.00 0.00 0.00 29 1011.7
20260509160225 78 211 26.0 32.0 0.00 0.00 0.00 29 1011.8
20260509160122 78 213 23.0 32.0 0.00 0.00 0.00 30 1011.7
20260509160020 77 223 23.0 30.0 0.00 0.00 0.00 30 1011.7
20260509155920 77 206 24.0 30.0 0.00 0.00 0.00 30 1011.7
20260509155819 77 206 25.0 31.0 0.00 0.00 0.00 30 1011.7
20260509155716 77 228 24.0 30.0 0.00 0.00 0.00 30 1011.6
20260509155636 77 223 23.0 31.0 0.00 0.00 0.00 30 1011.7
20260509155529 77 215 22.0 30.0 0.00 0.00 0.00 30 1011.7
20260509155453 77 232 22.0 32.0 0.00 0.00 0.00 31 1011.7
20260509155331 77 228 23.0 32.0 0.00 0.00 0.00 30 1011.7
20260509155255 78 235 22.0 32.0 0.00 0.00 0.00 30 1011.6
20260509155131 78 232 20.0 32.0 0.00 0.00 0.00 31 1011.7
20260509155029 77 221 18.0 32.0 0.00 0.00 0.00 31 1011.8
20260509154926 77 210 20.0 32.0 0.00 0.00 0.00 32 1011.7
20260509154824 76 217 23.0 32.0 0.00 0.00 0.00 31 1011.9
20260509154723 76 229 24.0 32.0 0.00 0.00 0.00 31 1011.7
20260509154640 77 196 25.0 32.0 0.00 0.00 0.00 31 1011.8